| time (UTC) | temp F | wind direction | speed MPH | gust MPH | rain 1hr in | rain 24hr in | rain mn in | humidity % | barometer mb |
| 20260506214956 | 66 | 342 | 9.0 | 20.0 | 0.00 | 0.00 | 0.00 | 72 | 1010.7 |
| 20260506214920 | 66 | 5 | 9.0 | 20.0 | 0.00 | 0.00 | 0.00 | 72 | 1010.7 |
| 20260506214802 | 66 | 355 | 7.0 | 20.0 | 0.00 | 0.00 | 0.00 | 72 | 1010.7 |
| 20260506214726 | 66 | 13 | 6.0 | 20.0 | 0.00 | 0.00 | 0.00 | 72 | 1010.7 |
| 20260506214608 | 66 | 348 | 8.0 | 20.0 | 0.00 | 0.00 | 0.00 | 73 | 1010.7 |
| 20260506214511 | 65 | 360 | 9.0 | 20.0 | 0.00 | 0.00 | 0.00 | 72 | 1010.8 |
| 20260506214415 | 65 | 5 | 8.0 | 18.0 | 0.00 | 0.00 | 0.00 | 72 | 1010.7 |
| 20260506214259 | 66 | 311 | 10.0 | 18.0 | 0.00 | 0.00 | 0.00 | 71 | 1010.6 |
| 20260506214202 | 66 | 348 | 10.0 | 18.0 | 0.00 | 0.00 | 0.00 | 70 | 1010.7 |
| 20260506214126 | 66 | 5 | 9.0 | 18.0 | 0.00 | 0.00 | 0.00 | 70 | 1010.8 |
| 20260506214028 | 67 | 340 | 9.0 | 18.0 | 0.00 | 0.00 | 0.00 | 70 | 1010.7 |
| 20260506213911 | 67 | 21 | 9.0 | 18.0 | 0.00 | 0.00 | 0.00 | 70 | 1010.7 |
| 20260506213814 | 67 | 5 | 9.0 | 18.0 | 0.00 | 0.00 | 0.00 | 70 | 1010.8 |
| 20260506213659 | 67 | 346 | 7.0 | 16.0 | 0.00 | 0.00 | 0.00 | 70 | 1010.8 |
| 20260506213620 | 67 | 349 | 8.0 | 16.0 | 0.00 | 0.00 | 0.00 | 70 | 1010.6 |
| 20260506213507 | 67 | 350 | 7.0 | 18.0 | 0.00 | 0.00 | 0.00 | 71 | 1010.7 |
| 20260506213430 | 67 | 323 | 7.0 | 18.0 | 0.00 | 0.00 | 0.00 | 72 | 1010.7 |
| 20260506213313 | 67 | 355 | 8.0 | 18.0 | 0.00 | 0.00 | 0.00 | 71 | 1010.7 |
| 20260506213216 | 67 | 22 | 9.0 | 18.0 | 0.00 | 0.00 | 0.00 | 70 | 1010.7 |
| 20260506213059 | 67 | 329 | 9.0 | 18.0 | 0.00 | 0.00 | 0.00 | 70 | 1010.7 |
| 20260506213002 | 67 | 313 | 10.0 | 18.0 | 0.00 | 0.00 | 0.00 | 70 | 1010.6 |
| 20260506212905 | 67 | 346 | 10.0 | 18.0 | 0.00 | 0.00 | 0.00 | 69 | 1010.7 |
| 20260506212833 | 68 | 348 | 11.0 | 18.0 | 0.00 | 0.00 | 0.00 | 69 | 1010.6 |
| 20260506212714 | 68 | 355 | 12.0 | 18.0 | 0.00 | 0.00 | 0.00 | 69 | 1010.6 |
| 20260506212618 | 69 | 49 | 9.0 | 17.0 | 0.00 | 0.00 | 0.00 | 69 | 1010.5 |
| 20260506212459 | 69 | 327 | 8.0 | 15.0 | 0.00 | 0.00 | 0.00 | 69 | 1010.6 |
| 20260506212403 | 69 | 11 | 9.0 | 17.0 | 0.00 | 0.00 | 0.00 | 69 | 1010.5 |
| 20260506212326 | 69 | 355 | 9.0 | 17.0 | 0.00 | 0.00 | 0.00 | 69 | 1010.6 |
| 20260506212209 | 69 | 27 | 10.0 | 17.0 | 0.00 | 0.00 | 0.00 | 69 | 1010.5 |
| 20260506212056 | 69 | 21 | 9.0 | 17.0 | 0.00 | 0.00 | 0.00 | 69 | 1010.5 |
| 20260506211956 | 69 | 355 | 9.0 | 17.0 | 0.00 | 0.00 | 0.00 | 69 | 1010.5 |
| 20260506211900 | 69 | 27 | 8.0 | 17.0 | 0.00 | 0.00 | 0.00 | 70 | 1010.6 |
| 20260506211803 | 69 | 10 | 7.0 | 18.0 | 0.00 | 0.00 | 0.00 | 70 | 1010.6 |
| 20260506211706 | 69 | 12 | 9.0 | 18.0 | 0.00 | 0.00 | 0.00 | 69 | 1010.6 |
| 20260506211610 | 69 | 27 | 12.0 | 18.0 | 0.00 | 0.00 | 0.00 | 69 | 1010.6 |
| 20260506211458 | 69 | 5 | 12.0 | 18.0 | 0.00 | 0.00 | 0.00 | 69 | 1010.5 |
| 20260506211402 | 69 | 5 | 11.0 | 18.0 | 0.00 | 0.00 | 0.00 | 69 | 1010.5 |
| 20260506211317 | 69 | 360 | 11.0 | 18.0 | 0.00 | 0.00 | 0.00 | 69 | 1010.6 |
| 20260506211211 | 69 | 14 | 12.0 | 18.0 | 0.00 | 0.00 | 0.00 | 68 | 1010.5 |
| 20260506211114 | 69 | 26 | 12.0 | 18.0 | 0.00 | 0.00 | 0.00 | 68 | 1010.5 |
| 20260506210958 | 70 | 34 | 12.0 | 18.0 | 0.00 | 0.00 | 0.00 | 68 | 1010.5 |
| 20260506210924 | 70 | 5 | 8.0 | 17.0 | 0.00 | 0.00 | 0.00 | 68 | 1010.5 |
| 20260506210819 | 70 | 26 | 7.0 | 17.0 | 0.00 | 0.00 | 0.00 | 68 | 1010.6 |
| 20260506210704 | 70 | 23 | 7.0 | 19.0 | 0.00 | 0.00 | 0.00 | 68 | 1010.5 |
| 20260506210630 | 70 | 337 | 8.0 | 19.0 | 0.00 | 0.00 | 0.00 | 68 | 1010.5 |
| 20260506210520 | 70 | 316 | 8.0 | 19.0 | 0.00 | 0.00 | 0.00 | 68 | 1010.5 |
| 20260506210405 | 70 | 348 | 8.0 | 19.0 | 0.00 | 0.00 | 0.00 | 68 | 1010.5 |
| 20260506210310 | 70 | 18 | 7.0 | 19.0 | 0.00 | 0.00 | 0.00 | 69 | 1010.4 |
| 20260506210204 | 70 | 331 | 7.0 | 21.0 | 0.00 | 0.00 | 0.00 | 69 | 1010.4 |
| 20260506210108 | 70 | 345 | 10.0 | 21.0 | 0.00 | 0.00 | 0.00 | 70 | 1010.4 |
| 20260506210040 | 70 | 5 | 13.0 | 21.0 | 0.00 | 0.00 | 0.00 | 68 | 1010.5 |
| 20260506205902 | 70 | 332 | 12.0 | 21.0 | 0.00 | 0.00 | 0.00 | 68 | 1010.6 |
| 20260506205807 | 70 | 327 | 11.0 | 21.0 | 0.00 | 0.00 | 0.00 | 68 | 1010.6 |
| 20260506205712 | 70 | 11 | 11.0 | 21.0 | 0.00 | 0.00 | 0.00 | 68 | 1010.6 |
| 20260506205623 | 71 | 317 | 11.0 | 21.0 | 0.00 | 0.00 | 0.00 | 68 | 1010.6 |
| 20260506205512 | 70 | 355 | 11.0 | 21.0 | 0.00 | 0.00 | 0.00 | 68 | 1010.6 |
| 20260506205356 | 70 | 331 | 11.0 | 21.0 | 0.00 | 0.00 | 0.00 | 68 | 1010.6 |
| 20260506205307 | 71 | 345 | 9.0 | 21.0 | 0.00 | 0.00 | 0.00 | 69 | 1010.6 |
| 20260506205232 | 71 | 319 | 8.0 | 16.0 | 0.00 | 0.00 | 0.00 | 68 | 1010.6 |
| 20260506205055 | 71 | 36 | 8.0 | 16.0 | 0.00 | 0.00 | 0.00 | 69 | 1010.6 |
| 20260506205007 | 71 | 330 | 8.0 | 16.0 | 0.00 | 0.00 | 0.00 | 69 | 1010.7 |
| 20260506204854 | 71 | 5 | 10.0 | 17.0 | 0.00 | 0.00 | 0.00 | 68 | 1010.6 |
| 20260506204759 | 71 | 13 | 11.0 | 17.0 | 0.00 | 0.00 | 0.00 | 69 | 1010.6 |
| 20260506204705 | 71 | 355 | 11.0 | 17.0 | 0.00 | 0.00 | 0.00 | 68 | 1010.5 |
| 20260506204609 | 72 | 355 | 8.0 | 18.0 | 0.00 | 0.00 | 0.00 | 68 | 1010.5 |
| 20260506204520 | 72 | 346 | 7.0 | 18.0 | 0.00 | 0.00 | 0.00 | 68 | 1010.4 |
| 20260506204404 | 72 | 24 | 8.0 | 18.0 | 0.00 | 0.00 | 0.00 | 68 | 1010.5 |
| 20260506204315 | 72 | 51 | 8.0 | 18.0 | 0.00 | 0.00 | 0.00 | 68 | 1010.5 |
| 20260506204202 | 72 | 350 | 10.0 | 21.0 | 0.00 | 0.00 | 0.00 | 68 | 1010.6 |
| 20260506204108 | 72 | 5 | 11.0 | 21.0 | 0.00 | 0.00 | 0.00 | 68 | 1010.6 |
| 20260506204019 | 72 | 360 | 9.0 | 21.0 | 0.00 | 0.00 | 0.00 | 68 | 1010.7 |
| 20260506203903 | 72 | 328 | 9.0 | 21.0 | 0.00 | 0.00 | 0.00 | 69 | 1010.7 |
| 20260506203836 | 72 | 22 | 9.0 | 21.0 | 0.00 | 0.00 | 0.00 | 70 | 1010.7 |
| 20260506203701 | 71 | 42 | 9.0 | 21.0 | 0.00 | 0.00 | 0.00 | 69 | 1010.7 |
| 20260506203609 | 71 | 321 | 10.0 | 21.0 | 0.00 | 0.00 | 0.00 | 69 | 1010.8 |
| 20260506203514 | 71 | 302 | 11.0 | 21.0 | 0.00 | 0.00 | 0.00 | 69 | 1010.9 |
| 20260506203359 | 71 | 348 | 10.0 | 21.0 | 0.00 | 0.00 | 0.00 | 69 | 1010.9 |
| 20260506203310 | 72 | 314 | 9.0 | 21.0 | 0.00 | 0.00 | 0.00 | 69 | 1010.9 |
| 20260506203154 | 72 | 14 | 11.0 | 20.0 | 0.00 | 0.00 | 0.00 | 68 | 1011.0 |
| 20260506203121 | 72 | 348 | 11.0 | 20.0 | 0.00 | 0.00 | 0.00 | 68 | 1011.0 |
| 20260506203015 | 72 | 341 | 9.0 | 17.0 | 0.00 | 0.00 | 0.00 | 68 | 1011.0 |
| 20260506202900 | 72 | 5 | 5.0 | 14.0 | 0.00 | 0.00 | 0.00 | 68 | 1010.9 |
| 20260506202804 | 73 | 355 | 6.0 | 15.0 | 0.00 | 0.00 | 0.00 | 68 | 1010.9 |
| 20260506202709 | 73 | 277 | 8.0 | 16.0 | 0.00 | 0.00 | 0.00 | 68 | 1010.9 |
| 20260506202554 | 73 | 327 | 8.0 | 19.0 | 0.00 | 0.00 | 0.00 | 69 | 1011.0 |
| 20260506202458 | 72 | 315 | 6.0 | 19.0 | 0.00 | 0.00 | 0.00 | 69 | 1010.9 |
| 20260506202354 | 72 | 355 | 5.0 | 19.0 | 0.00 | 0.00 | 0.00 | 69 | 1011.0 |
| 20260506202258 | 72 | 5 | 5.0 | 19.0 | 0.00 | 0.00 | 0.00 | 69 | 1010.9 |
| 20260506202202 | 72 | 349 | 6.0 | 19.0 | 0.00 | 0.00 | 0.00 | 69 | 1011.0 |
| 20260506202107 | 72 | 10 | 9.0 | 19.0 | 0.00 | 0.00 | 0.00 | 68 | 1011.0 |
| 20260506202018 | 72 | 32 | 10.0 | 19.0 | 0.00 | 0.00 | 0.00 | 68 | 1010.9 |
| 20260506201908 | 73 | 331 | 10.0 | 19.0 | 0.00 | 0.00 | 0.00 | 68 | 1010.9 |
| 20260506201813 | 73 | 336 | 9.0 | 19.0 | 0.00 | 0.00 | 0.00 | 68 | 1011.0 |
| 20260506201657 | 73 | 304 | 9.0 | 16.0 | 0.00 | 0.00 | 0.00 | 68 | 1010.9 |
| 20260506201602 | 73 | 13 | 10.0 | 17.0 | 0.00 | 0.00 | 0.00 | 68 | 1010.9 |
| 20260506201513 | 73 | 5 | 10.0 | 17.0 | 0.00 | 0.00 | 0.00 | 68 | 1010.9 |
| 20260506201419 | 73 | 32 | 10.0 | 17.0 | 0.00 | 0.00 | 0.00 | 68 | 1010.9 |
| 20260506201307 | 73 | 5 | 9.0 | 17.0 | 0.00 | 0.00 | 0.00 | 68 | 1010.9 |
| 20260506201218 | 73 | 15 | 9.0 | 17.0 | 0.00 | 0.00 | 0.00 | 68 | 1010.9 |
| 20260506201123 | 73 | 348 | 7.0 | 17.0 | 0.00 | 0.00 | 0.00 | 68 | 1010.9 |
| 20260506201013 | 73 | 333 | 6.0 | 18.0 | 0.00 | 0.00 | 0.00 | 69 | 1010.9 |
| 20260506200858 | 73 | 5 | 10.0 | 18.0 | 0.00 | 0.00 | 0.00 | 69 | 1010.9 |
| 20260506200803 | 73 | 38 | 11.0 | 18.0 | 0.00 | 0.00 | 0.00 | 68 | 1010.9 |
| 20260506200710 | 73 | 360 | 9.0 | 18.0 | 0.00 | 0.00 | 0.00 | 69 | 1010.9 |
| 20260506200557 | 73 | 355 | 8.0 | 18.0 | 0.00 | 0.00 | 0.00 | 69 | 1010.9 |
| 20260506200509 | 73 | 355 | 9.0 | 18.0 | 0.00 | 0.00 | 0.00 | 69 | 1010.7 |
| 20260506200413 | 73 | 336 | 9.0 | 18.0 | 0.00 | 0.00 | 0.00 | 69 | 1010.7 |
| 20260506200258 | 73 | 329 | 11.0 | 18.0 | 0.00 | 0.00 | 0.00 | 68 | 1010.7 |
| 20260506200223 | 73 | 321 | 12.0 | 19.0 | 0.00 | 0.00 | 0.00 | 67 | 1010.7 |
| 20260506200058 | 74 | 308 | 12.0 | 19.0 | 0.00 | 0.00 | 0.00 | 67 | 1010.6 |
| 20260506200001 | 74 | 336 | 9.0 | 19.0 | 0.00 | 0.00 | 0.00 | 68 | 1010.6 |
| 20260506195906 | 73 | 355 | 8.0 | 19.0 | 0.00 | 0.00 | 0.00 | 69 | 1010.7 |
| 20260506195817 | 73 | 333 | 7.0 | 19.0 | 0.00 | 0.00 | 0.00 | 70 | 1010.6 |
| 20260506195702 | 73 | 293 | 8.0 | 19.0 | 0.00 | 0.00 | 0.00 | 70 | 1010.6 |
| 20260506195607 | 73 | 309 | 8.0 | 19.0 | 0.00 | 0.00 | 0.00 | 70 | 1010.7 |
| 20260506195456 | 73 | 323 | 11.0 | 20.0 | 0.00 | 0.00 | 0.00 | 70 | 1010.6 |
| 20260506195402 | 73 | 338 | 13.0 | 20.0 | 0.00 | 0.00 | 0.00 | 70 | 1010.6 |
| 20260506195313 | 73 | 311 | 11.0 | 20.0 | 0.00 | 0.00 | 0.00 | 70 | 1010.6 |
| 20260506195219 | 73 | 360 | 8.0 | 20.0 | 0.00 | 0.00 | 0.00 | 71 | 1010.5 |
| 20260506195102 | 72 | 342 | 9.0 | 20.0 | 0.00 | 0.00 | 0.00 | 71 | 1010.5 |
| 20260506195012 | 72 | 350 | 9.0 | 20.0 | 0.00 | 0.00 | 0.00 | 71 | 1010.5 |
| 20260506194900 | 73 | 360 | 11.0 | 20.0 | 0.00 | 0.00 | 0.00 | 71 | 1010.4 |
| 20260506194806 | 73 | 337 | 10.0 | 20.0 | 0.00 | 0.00 | 0.00 | 71 | 1010.5 |
| 20260506194711 | 73 | 325 | 10.0 | 20.0 | 0.00 | 0.00 | 0.00 | 71 | 1010.4 |
| 20260506194624 | 73 | 307 | 9.0 | 19.0 | 0.00 | 0.00 | 0.00 | 71 | 1010.4 |
| 20260506194507 | 72 | 306 | 9.0 | 19.0 | 0.00 | 0.00 | 0.00 | 71 | 1010.4 |
| 20260506194412 | 72 | 336 | 10.0 | 19.0 | 0.00 | 0.00 | 0.00 | 71 | 1010.4 |
| 20260506194344 | 73 | 11 | 11.0 | 19.0 | 0.00 | 0.00 | 0.00 | 71 | 1010.2 |
| 20260506193458 | 74 | 17 | 8.0 | 19.0 | 0.00 | 0.00 | 0.00 | 70 | 1010.3 |
| 20260506193401 | 75 | 330 | 8.0 | 19.0 | 0.00 | 0.00 | 0.00 | 69 | 1010.3 |
| 20260506193306 | 75 | 21 | 9.0 | 19.0 | 0.00 | 0.00 | 0.00 | 70 | 1010.3 |
| 20260506193152 | 75 | 348 | 9.0 | 18.0 | 0.00 | 0.00 | 0.00 | 70 | 1010.2 |
| 20260506193056 | 75 | 345 | 9.0 | 18.0 | 0.00 | 0.00 | 0.00 | 70 | 1010.2 |
| 20260506192959 | 75 | 355 | 10.0 | 18.0 | 0.00 | 0.00 | 0.00 | 70 | 1010.1 |
| 20260506192903 | 75 | 326 | 9.0 | 18.0 | 0.00 | 0.00 | 0.00 | 71 | 1010.2 |
| 20260506192826 | 75 | 327 | 8.0 | 18.0 | 0.00 | 0.00 | 0.00 | 71 | 1010.2 |
| 20260506192709 | 75 | 341 | 10.0 | 18.0 | 0.00 | 0.00 | 0.00 | 71 | 1010.2 |
| 20260506192551 | 75 | 24 | 11.0 | 18.0 | 0.00 | 0.00 | 0.00 | 71 | 1010.2 |
| 20260506192459 | 76 | 9 | 11.0 | 18.0 | 0.00 | 0.00 | 0.00 | 70 | 1010.2 |
| 20260506192402 | 76 | 333 | 11.0 | 18.0 | 0.00 | 0.00 | 0.00 | 70 | 1010.2 |
| 20260506192306 | 77 | 35 | 12.0 | 18.0 | 0.00 | 0.00 | 0.00 | 68 | 1010.2 |
| 20260506192150 | 77 | 5 | 9.0 | 18.0 | 0.00 | 0.00 | 0.00 | 68 | 1010.2 |
| 20260506192053 | 78 | 332 | 8.0 | 15.0 | 0.00 | 0.00 | 0.00 | 68 | 1010.2 |
| 20260506191957 | 78 | 36 | 6.0 | 15.0 | 0.00 | 0.00 | 0.00 | 67 | 1010.1 |
| 20260506191925 | 78 | 11 | 5.0 | 15.0 | 0.00 | 0.00 | 0.00 | 68 | 1010.1 |
| 20260506191827 | 78 | 46 | 7.0 | 15.0 | 0.00 | 0.00 | 0.00 | 67 | 1010.1 |
| 20260506191650 | 78 | 42 | 7.0 | 15.0 | 0.00 | 0.00 | 0.00 | 67 | 1010.1 |
| 20260506191553 | 78 | 19 | 5.0 | 15.0 | 0.00 | 0.00 | 0.00 | 67 | 1010.1 |
| 20260506191456 | 78 | 11 | 7.0 | 15.0 | 0.00 | 0.00 | 0.00 | 67 | 1010.2 |
| 20260506191401 | 78 | 350 | 7.0 | 15.0 | 0.00 | 0.00 | 0.00 | 67 | 1010.2 |
| 20260506191303 | 78 | 342 | 6.0 | 12.0 | 0.00 | 0.00 | 0.00 | 68 | 1010.2 |
| 20260506191151 | 78 | 26 | 4.0 | 11.0 | 0.00 | 0.00 | 0.00 | 68 | 1010.2 |
| 20260506191054 | 78 | 20 | 3.0 | 11.0 | 0.00 | 0.00 | 0.00 | 69 | 1010.2 |
| 20260506190957 | 78 | 26 | 4.0 | 11.0 | 0.00 | 0.00 | 0.00 | 68 | 1010.2 |
| 20260506190900 | 78 | 19 | 5.0 | 11.0 | 0.00 | 0.00 | 0.00 | 69 | 1010.2 |
| 20260506190804 | 78 | 19 | 5.0 | 11.0 | 0.00 | 0.00 | 0.00 | 69 | 1010.3 |
| 20260506190707 | 78 | 24 | 5.0 | 11.0 | 0.00 | 0.00 | 0.00 | 69 | 1010.2 |
| 20260506190554 | 78 | 35 | 6.0 | 11.0 | 0.00 | 0.00 | 0.00 | 69 | 1010.2 |
| 20260506190517 | 78 | 14 | 6.0 | 10.0 | 0.00 | 0.00 | 0.00 | 69 | 1010.3 |
| 20260506190419 | 78 | 40 | 5.0 | 10.0 | 0.00 | 0.00 | 0.00 | 69 | 1010.2 |
| 20260506190302 | 78 | 39 | 5.0 | 8.0 | 0.00 | 0.00 | 0.00 | 69 | 1010.3 |
| 20260506190206 | 78 | 21 | 4.0 | 7.0 | 0.00 | 0.00 | 0.00 | 69 | 1010.3 |
| 20260506190049 | 78 | 46 | 3.0 | 9.0 | 0.00 | 0.00 | 0.00 | 69 | 1010.4 |
| 20260506185953 | 78 | 38 | 5.0 | 10.0 | 0.00 | 0.00 | 0.00 | 68 | 1010.4 |
| 20260506185901 | 79 | 38 | 5.0 | 12.0 | 0.00 | 0.00 | 0.00 | 68 | 1010.5 |
| 20260506185825 | 79 | 5 | 4.0 | 12.0 | 0.00 | 0.00 | 0.00 | 68 | 1010.4 |
| 20260506185649 | 79 | 40 | 3.0 | 12.0 | 0.00 | 0.00 | 0.00 | 68 | 1010.5 |
| 20260506185553 | 79 | 22 | 4.0 | 12.0 | 0.00 | 0.00 | 0.00 | 68 | 1010.5 |
| 20260506185456 | 79 | 24 | 4.0 | 12.0 | 0.00 | 0.00 | 0.00 | 68 | 1010.5 |
| 20260506185359 | 79 | 31 | 4.0 | 12.0 | 0.00 | 0.00 | 0.00 | 68 | 1010.4 |
| 20260506185306 | 79 | 29 | 6.0 | 12.0 | 0.00 | 0.00 | 0.00 | 67 | 1010.4 |
| 20260506185150 | 79 | 44 | 7.0 | 12.0 | 0.00 | 0.00 | 0.00 | 66 | 1010.4 |
| 20260506185054 | 80 | 34 | 5.0 | 12.0 | 0.00 | 0.00 | 0.00 | 66 | 1010.4 |
| 20260506184957 | 80 | 30 | 3.0 | 9.0 | 0.00 | 0.00 | 0.00 | 67 | 1010.4 |
| 20260506184901 | 80 | 19 | 4.0 | 9.0 | 0.00 | 0.00 | 0.00 | 67 | 1010.4 |
| 20260506184825 | 79 | 5 | 5.0 | 9.0 | 0.00 | 0.00 | 0.00 | 68 | 1010.4 |
| 20260506184708 | 79 | 18 | 2.0 | 9.0 | 0.00 | 0.00 | 0.00 | 70 | 1010.3 |
| 20260506184555 | 78 | 51 | 1.0 | 10.0 | 0.00 | 0.00 | 0.00 | 71 | 1010.4 |
| 20260506184459 | 77 | 51 | 2.0 | 10.0 | 0.00 | 0.00 | 0.00 | 70 | 1010.4 |
| 20260506184403 | 78 | 51 | 4.0 | 10.0 | 0.00 | 0.00 | 0.00 | 70 | 1010.4 |
| 20260506184327 | 78 | 47 | 4.0 | 10.0 | 0.00 | 0.00 | 0.00 | 71 | 1010.4 |
| 20260506184150 | 77 | 47 | 5.0 | 10.0 | 0.00 | 0.00 | 0.00 | 72 | 1010.3 |
| 20260506184053 | 76 | 71 | 4.0 | 10.0 | 0.00 | 0.00 | 0.00 | 73 | 1010.3 |
| 20260506184001 | 76 | 38 | 3.0 | 10.0 | 0.00 | 0.00 | 0.00 | 72 | 1010.3 |
| 20260506183904 | 76 | 96 | 4.0 | 10.0 | 0.00 | 0.00 | 0.00 | 71 | 1010.3 |
| 20260506183809 | 77 | 97 | 5.0 | 10.0 | 0.00 | 0.00 | 0.00 | 70 | 1010.3 |
| 20260506183651 | 77 | 90 | 7.0 | 10.0 | 0.00 | 0.00 | 0.00 | 70 | 1010.4 |
| 20260506183614 | 77 | 87 | 6.0 | 10.0 | 0.00 | 0.00 | 0.00 | 70 | 1010.4 |
| 20260506183451 | 78 | 89 | 5.0 | 10.0 | 0.00 | 0.00 | 0.00 | 69 | 1010.3 |
| 20260506183358 | 78 | 102 | 4.0 | 10.0 | 0.00 | 0.00 | 0.00 | 68 | 1010.3 |
| 20260506183303 | 79 | 112 | 2.0 | 10.0 | 0.00 | 0.00 | 0.00 | 67 | 1010.3 |
| 20260506183206 | 79 | 49 | 2.0 | 10.0 | 0.00 | 0.00 | 0.00 | 68 | 1010.2 |
| 20260506183050 | 78 | 44 | 4.0 | 10.0 | 0.00 | 0.00 | 0.00 | 68 | 1010.2 |
| 20260506182952 | 78 | 26 | 6.0 | 10.0 | 0.00 | 0.00 | 0.00 | 68 | 1010.2 |
| 20260506182916 | 79 | 24 | 5.0 | 10.0 | 0.00 | 0.00 | 0.00 | 67 | 1010.2 |
| 20260506182757 | 79 | 44 | 3.0 | 9.0 | 0.00 | 0.00 | 0.00 | 68 | 1010.1 |
| 20260506182700 | 79 | 30 | 4.0 | 8.0 | 0.00 | 0.00 | 0.00 | 67 | 1010.2 |
| 20260506182548 | 79 | 29 | 5.0 | 8.0 | 0.00 | 0.00 | 0.00 | 68 | 1010.2 |
| 20260506182511 | 79 | 29 | 3.0 | 8.0 | 0.00 | 0.00 | 0.00 | 68 | 1010.2 |
| 20260506182414 | 78 | 50 | 1.0 | 7.0 | 0.00 | 0.00 | 0.00 | 68 | 1010.2 |
| 20260506182251 | 78 | 55 | 2.0 | 7.0 | 0.00 | 0.00 | 0.00 | 68 | 1010.2 |
| 20260506182155 | 78 | 57 | 3.0 | 7.0 | 0.00 | 0.00 | 0.00 | 68 | 1010.2 |
| 20260506182058 | 78 | 20 | 3.0 | 7.0 | 0.00 | 0.00 | 0.00 | 68 | 1010.3 |
| 20260506182021 | 78 | 51 | 2.0 | 7.0 | 0.00 | 0.00 | 0.00 | 67 | 1010.2 |
| 20260506181907 | 78 | 81 | 3.0 | 7.0 | 0.00 | 0.00 | 0.00 | 67 | 1010.3 |
| 20260506181812 | 79 | 49 | 2.0 | 7.0 | 0.00 | 0.00 | 0.00 | 67 | 1010.4 |
| 20260506181653 | 79 | 90 | 2.0 | 6.0 | 0.00 | 0.00 | 0.00 | 66 | 1010.4 |
| 20260506181556 | 79 | 34 | 2.0 | 6.0 | 0.00 | 0.00 | 0.00 | 67 | 1010.4 |
| 20260506181459 | 79 | 5 | 3.0 | 6.0 | 0.00 | 0.00 | 0.00 | 68 | 1010.3 |
| 20260506181402 | 79 | 42 | 3.0 | 8.0 | 0.00 | 0.00 | 0.00 | 68 | 1010.4 |
| 20260506181305 | 79 | 25 | 3.0 | 8.0 | 0.00 | 0.00 | 0.00 | 67 | 1010.3 |
| 20260506181213 | 78 | 12 | 2.0 | 8.0 | 0.00 | 0.00 | 0.00 | 70 | 1010.3 |
| 20260506181056 | 77 | 75 | 0.0 | 8.0 | 0.00 | 0.00 | 0.00 | 72 | 1010.3 |
| 20260506180959 | 75 | 75 | 1.0 | 8.0 | 0.00 | 0.00 | 0.00 | 72 | 1010.3 |
| 20260506180903 | 75 | 75 | 2.0 | 8.0 | 0.00 | 0.00 | 0.00 | 72 | 1010.3 |
| 20260506180808 | 75 | 72 | 4.0 | 8.0 | 0.00 | 0.00 | 0.00 | 72 | 1010.3 |
| 20260506180651 | 75 | 52 | 4.0 | 8.0 | 0.00 | 0.00 | 0.00 | 71 | 1010.3 |
| 20260506180559 | 75 | 96 | 3.0 | 8.0 | 0.00 | 0.00 | 0.00 | 71 | 1010.3 |
| 20260506180502 | 75 | 109 | 2.0 | 6.0 | 0.00 | 0.00 | 0.00 | 70 | 1010.2 |
| 20260506180405 | 76 | 103 | 2.0 | 9.0 | 0.00 | 0.00 | 0.00 | 70 | 1010.3 |
| 20260506180308 | 76 | 53 | 2.0 | 10.0 | 0.00 | 0.00 | 0.00 | 72 | 1010.2 |
| 20260506180212 | 75 | 53 | 3.0 | 10.0 | 0.00 | 0.00 | 0.00 | 73 | 1010.3 |
| 20260506180049 | 74 | 57 | 3.0 | 10.0 | 0.00 | 0.00 | 0.00 | 73 | 1010.3 |
| 20260506175953 | 74 | 47 | 2.0 | 10.0 | 0.00 | 0.00 | 0.00 | 75 | 1010.3 |
| 20260506175919 | 74 | 84 | 1.0 | 10.0 | 0.00 | 0.00 | 0.00 | 75 | 1010.4 |
| 20260506175823 | 73 | 85 | 2.0 | 10.0 | 0.00 | 0.00 | 0.00 | 75 | 1010.4 |
| 20260506175704 | 73 | 85 | 5.0 | 10.0 | 0.00 | 0.00 | 0.00 | 74 | 1010.3 |
| 20260506175548 | 73 | 83 | 7.0 | 10.0 | 0.00 | 0.00 | 0.00 | 74 | 1010.3 |
| 20260506175452 | 73 | 58 | 5.0 | 10.0 | 0.00 | 0.00 | 0.00 | 74 | 1010.3 |
| 20260506175354 | 73 | 92 | 3.0 | 9.0 | 0.00 | 0.00 | 0.00 | 75 | 1010.3 |
| 20260506175259 | 73 | 81 | 2.0 | 9.0 | 0.00 | 0.00 | 0.00 | 75 | 1010.2 |
| 20260506175206 | 73 | 101 | 3.0 | 9.0 | 0.00 | 0.00 | 0.00 | 75 | 1010.3 |
| 20260506175110 | 72 | 102 | 5.0 | 10.0 | 0.00 | 0.00 | 0.00 | 74 | 1010.2 |
| 20260506174953 | 73 | 80 | 4.0 | 11.0 | 0.00 | 0.00 | 0.00 | 74 | 1010.2 |
| 20260506174856 | 73 | 101 | 2.0 | 11.0 | 0.00 | 0.00 | 0.00 | 75 | 1010.3 |
| 20260506174759 | 72 | 101 | 2.0 | 11.0 | 0.00 | 0.00 | 0.00 | 76 | 1010.3 |
| 20260506174703 | 72 | 96 | 3.0 | 11.0 | 0.00 | 0.00 | 0.00 | 76 | 1010.3 |
| 20260506174612 | 72 | 102 | 4.0 | 11.0 | 0.00 | 0.00 | 0.00 | 76 | 1010.3 |
| 20260506174448 | 72 | 59 | 6.0 | 11.0 | 0.00 | 0.00 | 0.00 | 75 | 1010.3 |
| 20260506174412 | 72 | 38 | 6.0 | 11.0 | 0.00 | 0.00 | 0.00 | 75 | 1010.3 |
| 20260506174248 | 72 | 74 | 6.0 | 11.0 | 0.00 | 0.00 | 0.00 | 76 | 1010.4 |
| 20260506174212 | 72 | 102 | 6.0 | 11.0 | 0.00 | 0.00 | 0.00 | 75 | 1010.4 |
| 20260506174054 | 72 | 69 | 5.0 | 10.0 | 0.00 | 0.00 | 0.00 | 75 | 1010.4 |
| 20260506173958 | 72 | 87 | 4.0 | 10.0 | 0.00 | 0.00 | 0.00 | 74 | 1010.4 |
| 20260506173905 | 72 | 84 | 4.0 | 10.0 | 0.00 | 0.00 | 0.00 | 74 | 1010.4 |
| 20260506173829 | 73 | 94 | 2.0 | 8.0 | 0.00 | 0.00 | 0.00 | 75 | 1010.4 |
| 20260506173654 | 72 | 347 | 3.0 | 8.0 | 0.00 | 0.00 | 0.00 | 75 | 1010.4 |
| 20260506173557 | 72 | 92 | 3.0 | 8.0 | 0.00 | 0.00 | 0.00 | 74 | 1010.4 |
| 20260506173500 | 73 | 84 | 3.0 | 8.0 | 0.00 | 0.00 | 0.00 | 75 | 1010.4 |
| 20260506173404 | 72 | 33 | 4.0 | 8.0 | 0.00 | 0.00 | 0.00 | 74 | 1010.4 |
| 20260506173311 | 72 | 38 | 5.0 | 10.0 | 0.00 | 0.00 | 0.00 | 76 | 1010.4 |
| 20260506173153 | 72 | 36 | 5.0 | 10.0 | 0.00 | 0.00 | 0.00 | 77 | 1010.4 |
| 20260506173058 | 71 | 15 | 4.0 | 10.0 | 0.00 | 0.00 | 0.00 | 77 | 1010.4 |
| 20260506173002 | 71 | 51 | 3.0 | 10.0 | 0.00 | 0.00 | 0.00 | 78 | 1010.3 |
| 20260506172905 | 70 | 111 | 3.0 | 10.0 | 0.00 | 0.00 | 0.00 | 76 | 1010.4 |
| 20260506172829 | 70 | 118 | 4.0 | 10.0 | 0.00 | 0.00 | 0.00 | 77 | 1010.4 |
| 20260506172652 | 70 | 82 | 5.0 | 11.0 | 0.00 | 0.00 | 0.00 | 77 | 1010.4 |
| 20260506172559 | 70 | 42 | 7.0 | 11.0 | 0.00 | 0.00 | 0.00 | 77 | 1010.4 |
| 20260506172502 | 70 | 69 | 6.0 | 11.0 | 0.00 | 0.00 | 0.00 | 77 | 1010.4 |
| 20260506172405 | 70 | 49 | 5.0 | 11.0 | 0.00 | 0.00 | 0.00 | 77 | 1010.4 |
| 20260506172249 | 70 | 92 | 6.0 | 11.0 | 0.00 | 0.00 | 0.00 | 77 | 1010.5 |
| 20260506172153 | 70 | 37 | 6.0 | 11.0 | 0.00 | 0.00 | 0.00 | 77 | 1010.5 |
| 20260506172056 | 70 | 81 | 6.0 | 11.0 | 0.00 | 0.00 | 0.00 | 76 | 1010.5 |
| 20260506172004 | 70 | 93 | 6.0 | 11.0 | 0.00 | 0.00 | 0.00 | 75 | 1010.6 |
| 20260506171849 | 71 | 101 | 5.0 | 11.0 | 0.00 | 0.00 | 0.00 | 75 | 1010.5 |
| 20260506171751 | 72 | 67 | 3.0 | 11.0 | 0.00 | 0.00 | 0.00 | 75 | 1010.5 |
| 20260506171655 | 71 | 44 | 4.0 | 11.0 | 0.00 | 0.00 | 0.00 | 75 | 1010.5 |
| 20260506171559 | 71 | 40 | 6.0 | 11.0 | 0.00 | 0.00 | 0.00 | 74 | 1010.6 |
| 20260506171503 | 71 | 42 | 6.0 | 11.0 | 0.00 | 0.00 | 0.00 | 74 | 1010.5 |
| 20260506171350 | 72 | 117 | 4.0 | 11.0 | 0.00 | 0.00 | 0.00 | 73 | 1010.4 |
| 20260506171254 | 72 | 17 | 4.0 | 11.0 | 0.00 | 0.00 | 0.00 | 73 | 1010.4 |
| 20260506171158 | 72 | 28 | 4.0 | 11.0 | 0.00 | 0.00 | 0.00 | 74 | 1010.5 |
| 20260506171102 | 71 | 351 | 4.0 | 11.0 | 0.00 | 0.00 | 0.00 | 75 | 1010.4 |
| 20260506171007 | 71 | 9 | 6.0 | 11.0 | 0.00 | 0.00 | 0.00 | 76 | 1010.5 |
| 20260506170849 | 70 | 15 | 6.0 | 11.0 | 0.00 | 0.00 | 0.00 | 77 | 1010.5 |
| 20260506170757 | 70 | 65 | 5.0 | 11.0 | 0.00 | 0.00 | 0.00 | 76 | 1010.5 |
| 20260506170702 | 70 | 32 | 5.0 | 11.0 | 0.00 | 0.00 | 0.00 | 77 | 1010.4 |
| 20260506170604 | 70 | 24 | 5.0 | 11.0 | 0.00 | 0.00 | 0.00 | 77 | 1010.4 |
| 20260506170508 | 69 | 78 | 6.0 | 13.0 | 0.00 | 0.00 | 0.00 | 78 | 1010.4 |
| 20260506170412 | 69 | 26 | 7.0 | 13.0 | 0.00 | 0.00 | 0.00 | 78 | 1010.4 |
| 20260506170248 | 69 | 35 | 5.0 | 13.0 | 0.00 | 0.00 | 0.00 | 78 | 1010.4 |
| 20260506170156 | 68 | 46 | 5.0 | 13.0 | 0.00 | 0.00 | 0.00 | 77 | 1010.4 |
| 20260506170059 | 68 | 46 | 7.0 | 14.0 | 0.00 | 0.00 | 0.00 | 77 | 1010.5 |
| 20260506170003 | 69 | 19 | 7.0 | 14.0 | 0.00 | 0.00 | 0.00 | 76 | 1010.6 |
| 20260506165906 | 69 | 30 | 7.0 | 14.0 | 0.00 | 0.00 | 0.00 | 76 | 1010.7 |
| 20260506165750 | 69 | 65 | 7.0 | 14.0 | 0.00 | 0.00 | 0.00 | 76 | 1010.7 |
| 20260506165653 | 69 | 18 | 7.0 | 14.0 | 0.00 | 0.00 | 0.00 | 76 | 1010.7 |
| 20260506165601 | 70 | 49 | 7.0 | 14.0 | 0.00 | 0.00 | 0.00 | 76 | 1010.7 |
| 20260506165504 | 70 | 36 | 6.0 | 18.0 | 0.00 | 0.00 | 0.00 | 77 | 1010.7 |
| 20260506165408 | 70 | 15 | 5.0 | 18.0 | 0.00 | 0.00 | 0.00 | 77 | 1010.6 |
| 20260506165251 | 69 | 28 | 7.0 | 18.0 | 0.00 | 0.00 | 0.00 | 78 | 1010.7 |
| 20260506165154 | 69 | 36 | 7.0 | 18.0 | 0.00 | 0.00 | 0.00 | 77 | 1010.7 |
| 20260506165058 | 69 | 34 | 7.0 | 18.0 | 0.00 | 0.00 | 0.00 | 78 | 1010.6 |
| 20260506165006 | 69 | 71 | 7.0 | 18.0 | 0.00 | 0.00 | 0.00 | 77 | 1010.7 |
| 20260506164909 | 69 | 32 | 10.0 | 18.0 | 0.00 | 0.00 | 0.00 | 77 | 1010.7 |
| 20260506164833 | 69 | 35 | 10.0 | 18.0 | 0.00 | 0.00 | 0.00 | 76 | 1010.7 |
| 20260506164735 | 69 | 27 | 9.0 | 18.0 | 0.00 | 0.00 | 0.00 | 77 | 1010.8 |
| 20260506164550 | 69 | 37 | 8.0 | 15.0 | 0.00 | 0.00 | 0.00 | 77 | 1010.8 |
| 20260506164453 | 69 | 53 | 7.0 | 17.0 | 0.00 | 0.00 | 0.00 | 78 | 1010.8 |
| 20260506164357 | 68 | 15 | 8.0 | 17.0 | 0.00 | 0.00 | 0.00 | 79 | 1010.8 |
| 20260506164303 | 68 | 55 | 10.0 | 17.0 | 0.00 | 0.00 | 0.00 | 79 | 1010.8 |
| 20260506164207 | 68 | 32 | 10.0 | 17.0 | 0.00 | 0.00 | 0.00 | 79 | 1010.8 |
| 20260506164112 | 68 | 37 | 10.0 | 17.0 | 0.00 | 0.00 | 0.00 | 79 | 1010.9 |
| 20260506163953 | 68 | 31 | 10.0 | 17.0 | 0.00 | 0.00 | 0.00 | 79 | 1010.9 |
| 20260506163917 | 68 | 33 | 8.0 | 17.0 | 0.00 | 0.00 | 0.00 | 80 | 1010.9 |
| 20260506163759 | 68 | 22 | 9.0 | 17.0 | 0.00 | 0.00 | 0.00 | 80 | 1010.9 |
| 20260506163724 | 67 | 19 | 8.0 | 17.0 | 0.00 | 0.00 | 0.00 | 80 | 1010.9 |
| 20260506163549 | 67 | 14 | 7.0 | 16.0 | 0.00 | 0.00 | 0.00 | 82 | 1011.1 |
| 20260506163453 | 67 | 18 | 9.0 | 16.0 | 0.00 | 0.00 | 0.00 | 82 | 1011.1 |
| 20260506163356 | 66 | 17 | 10.0 | 16.0 | 0.00 | 0.00 | 0.00 | 82 | 1011.0 |
| 20260506163259 | 66 | 355 | 11.0 | 21.0 | 0.00 | 0.00 | 0.00 | 82 | 1011.1 |
| 20260506163203 | 66 | 17 | 11.0 | 21.0 | 0.00 | 0.00 | 0.00 | 82 | 1010.9 |
| 20260506163106 | 66 | 25 | 9.0 | 21.0 | 0.00 | 0.00 | 0.00 | 82 | 1011.0 |
| 20260506163014 | 66 | 31 | 9.0 | 21.0 | 0.00 | 0.00 | 0.00 | 83 | 1011.1 |
| 20260506162850 | 65 | 15 | 9.0 | 21.0 | 0.00 | 0.00 | 0.00 | 83 | 1011.2 |
| 20260506162814 | 65 | 57 | 9.0 | 21.0 | 0.00 | 0.00 | 0.00 | 83 | 1011.2 |
| 20260506162650 | 65 | 17 | 9.0 | 21.0 | 0.00 | 0.00 | 0.00 | 82 | 1011.4 |
| 20260506162553 | 65 | 28 | 11.0 | 21.0 | 0.00 | 0.00 | 0.00 | 82 | 1011.4 |
| 20260506162456 | 66 | 14 | 12.0 | 21.0 | 0.00 | 0.00 | 0.00 | 82 | 1011.4 |
| 20260506162400 | 66 | 360 | 10.0 | 20.0 | 0.00 | 0.00 | 0.00 | 82 | 1011.6 |
| 20260506162308 | 66 | 19 | 9.0 | 20.0 | 0.00 | 0.00 | 0.00 | 83 | 1011.5 |
| 20260506162211 | 66 | 355 | 9.0 | 21.0 | 0.00 | 0.00 | 0.00 | 83 | 1011.6 |
| 20260506162135 | 66 | 38 | 9.0 | 21.0 | 0.00 | 0.00 | 0.00 | 83 | 1011.4 |
| 20260506161950 | 66 | 17 | 7.0 | 25.0 | 0.00 | 0.00 | 0.00 | 83 | 1011.4 |
| 20260506161913 | 66 | 9 | 10.0 | 25.0 | 0.00 | 0.00 | 0.00 | 82 | 1011.4 |
| 20260506161755 | 66 | 16 | 11.0 | 25.0 | 0.00 | 0.00 | 0.00 | 82 | 1011.5 |
| 20260506161659 | 66 | 35 | 10.0 | 25.0 | 0.00 | 0.00 | 0.00 | 82 | 1011.6 |
| 20260506161605 | 66 | 26 | 12.0 | 25.0 | 0.00 | 0.00 | 0.00 | 82 | 1011.6 |
| 20260506161450 | 66 | 38 | 14.0 | 25.0 | 0.00 | 0.00 | 0.00 | 82 | 1011.7 |
| 20260506161414 | 67 | 20 | 14.0 | 25.0 | 0.00 | 0.00 | 0.00 | 82 | 1011.7 |
| 20260506161249 | 67 | 5 | 13.0 | 25.0 | 0.00 | 0.00 | 0.00 | 82 | 1011.9 |
| 20260506161154 | 67 | 53 | 12.0 | 22.0 | 0.00 | 0.00 | 0.00 | 82 | 1011.9 |
| 20260506161058 | 67 | 32 | 10.0 | 22.0 | 0.00 | 0.00 | 0.00 | 81 | 1011.9 |
| 20260506161024 | 68 | 5 | 10.0 | 22.0 | 0.00 | 0.00 | 0.00 | 81 | 1012.0 |
| 20260506160908 | 68 | 48 | 11.0 | 22.0 | 0.00 | 0.00 | 0.00 | 81 | 1012.1 |
| 20260506160750 | 68 | 22 | 11.0 | 22.0 | 0.00 | 0.00 | 0.00 | 81 | 1012.1 |
| 20260506160655 | 69 | 338 | 11.0 | 18.0 | 0.00 | 0.00 | 0.00 | 81 | 1012.1 |
| 20260506160558 | 69 | 30 | 10.0 | 17.0 | 0.00 | 0.00 | 0.00 | 81 | 1012.0 |
| 20260506160521 | 69 | 360 | 9.0 | 17.0 | 0.00 | 0.00 | 0.00 | 81 | 1012.0 |
| 20260506160424 | 69 | 342 | 9.0 | 17.0 | 0.00 | 0.00 | 0.00 | 81 | 1012.0 |
| 20260506160251 | 69 | 338 | 9.0 | 17.0 | 0.00 | 0.00 | 0.00 | 81 | 1011.9 |
| 20260506160154 | 69 | 348 | 10.0 | 17.0 | 0.00 | 0.00 | 0.00 | 81 | 1011.8 |
| 20260506160058 | 70 | 360 | 10.0 | 17.0 | 0.00 | 0.00 | 0.00 | 81 | 1011.7 |
| 20260506160001 | 70 | 5 | 10.0 | 17.0 | 0.00 | 0.00 | 0.00 | 80 | 1011.5 |
| 20260506155904 | 70 | 20 | 10.0 | 16.0 | 0.00 | 0.00 | 0.00 | 81 | 1011.5 |
| 20260506155748 | 70 | 347 | 6.0 | 16.0 | 0.00 | 0.00 | 0.00 | 81 | 1011.3 |
| 20260506155656 | 70 | 346 | 6.0 | 16.0 | 0.00 | 0.00 | 0.00 | 81 | 1011.3 |
| 20260506155559 | 70 | 26 | 9.0 | 16.0 | 0.00 | 0.00 | 0.00 | 81 | 1011.3 |
| 20260506155523 | 71 | 12 | 9.0 | 16.0 | 0.00 | 0.00 | 0.00 | 80 | 1011.1 |
| 20260506155405 | 71 | 14 | 8.0 | 14.0 | 0.00 | 0.00 | 0.00 | 81 | 1011.1 |
| 20260506155307 | 71 | 34 | 6.0 | 17.0 | 0.00 | 0.00 | 0.00 | 81 | 1011.1 |
| 20260506155150 | 71 | 53 | 7.0 | 18.0 | 0.00 | 0.00 | 0.00 | 80 | 1011.1 |
| 20260506155114 | 71 | 355 | 9.0 | 18.0 | 0.00 | 0.00 | 0.00 | 79 | 1011.1 |
| 20260506155000 | 72 | 31 | 8.0 | 18.0 | 0.00 | 0.00 | 0.00 | 79 | 1011.1 |
| 20260506154903 | 72 | 15 | 6.0 | 18.0 | 0.00 | 0.00 | 0.00 | 79 | 1011.1 |
| 20260506154807 | 73 | 61 | 7.0 | 18.0 | 0.00 | 0.00 | 0.00 | 80 | 1011.2 |
| 20260506154710 | 74 | 18 | 9.0 | 18.0 | 0.00 | 0.00 | 0.00 | 80 | 1011.0 |
| 20260506154553 | 74 | 40 | 12.0 | 18.0 | 0.00 | 0.00 | 0.00 | 80 | 1011.0 |
| 20260506154456 | 75 | 40 | 10.0 | 18.0 | 0.00 | 0.00 | 0.00 | 82 | 1010.9 |
| 20260506154400 | 76 | 43 | 6.0 | 18.0 | 0.00 | 0.00 | 0.00 | 84 | 1010.8 |
| 20260506154307 | 76 | 74 | 4.0 | 7.0 | 0.00 | 0.00 | 0.00 | 84 | 1010.8 |
| 20260506154151 | 76 | 88 | 4.0 | 7.0 | 0.00 | 0.00 | 0.00 | 84 | 1010.7 |
| 20260506154055 | 75 | 90 | 5.0 | 7.0 | 0.00 | 0.00 | 0.00 | 84 | 1010.7 |
| 20260506153959 | 75 | 96 | 5.0 | 7.0 | 0.00 | 0.00 | 0.00 | 84 | 1010.6 |
| 20260506153902 | 76 | 87 | 5.0 | 7.0 | 0.00 | 0.00 | 0.00 | 83 | 1010.6 |
| 20260506153750 | 76 | 88 | 4.0 | 6.0 | 0.00 | 0.00 | 0.00 | 83 | 1010.5 |
| 20260506153715 | 76 | 88 | 4.0 | 6.0 | 0.00 | 0.00 | 0.00 | 84 | 1010.5 |
| 20260506153550 | 76 | 89 | 3.0 | 6.0 | 0.00 | 0.00 | 0.00 | 83 | 1010.6 |
| 20260506153513 | 76 | 87 | 3.0 | 6.0 | 0.00 | 0.00 | 0.00 | 83 | 1010.6 |
| 20260506153355 | 76 | 86 | 3.0 | 6.0 | 0.00 | 0.00 | 0.00 | 83 | 1010.6 |
| 20260506153259 | 76 | 87 | 3.0 | 6.0 | 0.00 | 0.00 | 0.00 | 83 | 1010.7 |
| 20260506153202 | 76 | 87 | 2.0 | 6.0 | 0.00 | 0.00 | 0.00 | 83 | 1010.7 |
| 20260506153050 | 76 | 98 | 1.0 | 4.0 | 0.00 | 0.00 | 0.00 | 83 | 1010.7 |
| 20260506152953 | 76 | 98 | 2.0 | 4.0 | 0.00 | 0.00 | 0.00 | 83 | 1010.7 |
| 20260506152857 | 76 | 78 | 1.0 | 4.0 | 0.00 | 0.00 | 0.00 | 83 | 1010.6 |
| 20260506152800 | 76 | 78 | 2.0 | 4.0 | 0.00 | 0.00 | 0.00 | 83 | 1010.6 |
| 20260506152724 | 76 | 80 | 2.0 | 4.0 | 0.00 | 0.00 | 0.00 | 83 | 1010.6 |
| 20260506152602 | 76 | 80 | 2.0 | 4.0 | 0.00 | 0.00 | 0.00 | 83 | 1010.6 |
| 20260506152506 | 76 | 80 | 2.0 | 3.0 | 0.00 | 0.00 | 0.00 | 83 | 1010.4 |
| 20260506152414 | 76 | 82 | 1.0 | 5.0 | 0.00 | 0.00 | 0.00 | 83 | 1010.4 |
| 20260506152256 | 76 | 82 | 1.0 | 5.0 | 0.00 | 0.00 | 0.00 | 83 | 1010.4 |
| 20260506152200 | 76 | 81 | 1.0 | 5.0 | 0.00 | 0.00 | 0.00 | 83 | 1010.2 |
| 20260506152104 | 76 | 59 | 0.0 | 5.0 | 0.00 | 0.00 | 0.00 | 83 | 1010.2 |
| 20260506152007 | 76 | 59 | 1.0 | 5.0 | 0.00 | 0.00 | 0.00 | 83 | 1010.2 |
| 20260506151851 | 76 | 58 | 1.0 | 5.0 | 0.00 | 0.00 | 0.00 | 83 | 1010.2 |
| 20260506151815 | 76 | 53 | 2.0 | 5.0 | 0.00 | 0.00 | 0.00 | 83 | 1010.2 |
| 20260506151701 | 76 | 49 | 2.0 | 5.0 | 0.00 | 0.00 | 0.00 | 83 | 1010.2 |
| 20260506151604 | 76 | 48 | 2.0 | 5.0 | 0.00 | 0.00 | 0.00 | 83 | 1010.2 |
| 20260506151507 | 76 | 119 | 2.0 | 3.0 | 0.00 | 0.00 | 0.00 | 83 | 1010.2 |
| 20260506151350 | 76 | 120 | 1.0 | 3.0 | 0.00 | 0.00 | 0.00 | 83 | 1010.2 |
| 20260506151255 | 76 | 123 | 0.0 | 3.0 | 0.00 | 0.00 | 0.00 | 83 | 1010.2 |
| 20260506151159 | 76 | 123 | 0.0 | 3.0 | 0.00 | 0.00 | 0.00 | 83 | 1010.2 |
| 20260506151106 | 75 | 123 | 1.0 | 3.0 | 0.00 | 0.00 | 0.00 | 83 | 1010.2 |
| 20260506150950 | 75 | 123 | 0.0 | 6.0 | 0.00 | 0.00 | 0.00 | 83 | 1010.1 |
| 20260506150853 | 75 | 124 | 0.0 | 6.0 | 0.00 | 0.00 | 0.00 | 83 | 1010.1 |
| 20260506150757 | 75 | 124 | 0.0 | 6.0 | 0.00 | 0.00 | 0.00 | 83 | 1010.1 |
| 20260506150722 | 75 | 124 | 0.0 | 6.0 | 0.00 | 0.00 | 0.00 | 83 | 1010.0 |
| 20260506150604 | 75 | 124 | 0.0 | 6.0 | 0.00 | 0.00 | 0.00 | 83 | 1010.0 |
| 20260506150527 | 75 | 124 | 1.0 | 6.0 | 0.00 | 0.00 | 0.00 | 83 | 1010.0 |
| 20260506150354 | 76 | 124 | 1.0 | 6.0 | 0.00 | 0.00 | 0.00 | 83 | 1010.0 |
| 20260506150317 | 76 | 124 | 2.0 | 6.0 | 0.00 | 0.00 | 0.00 | 83 | 1009.9 |
| 20260506150200 | 76 | 125 | 3.0 | 6.0 | 0.00 | 0.00 | 0.00 | 83 | 1009.9 |
| 20260506150104 | 76 | 107 | 2.0 | 6.0 | 0.00 | 0.00 | 0.00 | 83 | 1009.9 |
| 20260506150007 | 76 | 144 | 2.0 | 4.0 | 0.00 | 0.00 | 0.00 | 83 | 1010.0 |
| 20260506145851 | 76 | 146 | 1.0 | 4.0 | 0.00 | 0.00 | 0.00 | 83 | 1009.9 |
| 20260506145758 | 76 | 146 | 0.0 | 4.0 | 0.00 | 0.00 | 0.00 | 83 | 1009.9 |
| 20260506145702 | 76 | 146 | 1.0 | 4.0 | 0.00 | 0.00 | 0.00 | 83 | 1009.8 |
| 20260506145606 | 76 | 146 | 2.0 | 4.0 | 0.00 | 0.00 | 0.00 | 83 | 1009.8 |
| 20260506145448 | 76 | 146 | 2.0 | 6.0 | 0.00 | 0.00 | 0.00 | 83 | 1009.6 |
| 20260506145352 | 76 | 146 | 2.0 | 6.0 | 0.00 | 0.00 | 0.00 | 83 | 1009.6 |
| 20260506145256 | 76 | 146 | 2.0 | 6.0 | 0.00 | 0.00 | 0.00 | 83 | 1009.6 |
| 20260506145221 | 76 | 146 | 2.0 | 6.0 | 0.00 | 0.00 | 0.00 | 83 | 1009.5 |
| 20260506145108 | 76 | 150 | 2.0 | 6.0 | 0.00 | 0.00 | 0.00 | 83 | 1009.6 |
| 20260506144952 | 76 | 144 | 1.0 | 6.0 | 0.00 | 0.00 | 0.00 | 83 | 1009.6 |
| 20260506144854 | 76 | 154 | 2.0 | 6.0 | 0.00 | 0.00 | 0.00 | 83 | 1009.6 |
| 20260506144818 | 76 | 175 | 2.0 | 6.0 | 0.00 | 0.00 | 0.00 | 83 | 1009.5 |
| 20260506144700 | 76 | 194 | 2.0 | 7.0 | 0.00 | 0.00 | 0.00 | 83 | 1009.5 |
| 20260506144603 | 76 | 148 | 2.0 | 7.0 | 0.00 | 0.00 | 0.00 | 83 | 1009.5 |
| 20260506144526 | 76 | 148 | 2.0 | 7.0 | 0.00 | 0.00 | 0.00 | 83 | 1009.4 |
| 20260506144413 | 76 | 157 | 2.0 | 6.0 | 0.00 | 0.00 | 0.00 | 83 | 1009.5 |
| 20260506144257 | 76 | 157 | 1.0 | 6.0 | 0.00 | 0.00 | 0.00 | 83 | 1009.5 |
| 20260506144157 | 76 | 150 | 1.0 | 6.0 | 0.00 | 0.00 | 0.00 | 83 | 1009.6 |
| 20260506144101 | 76 | 150 | 1.0 | 6.0 | 0.00 | 0.00 | 0.00 | 83 | 1009.6 |
| 20260506144024 | 76 | 151 | 2.0 | 6.0 | 0.00 | 0.00 | 0.00 | 83 | 1009.6 |
| 20260506143906 | 76 | 155 | 3.0 | 6.0 | 0.00 | 0.00 | 0.00 | 83 | 1009.6 |
| 20260506143751 | 76 | 196 | 1.0 | 7.0 | 0.00 | 0.00 | 0.00 | 83 | 1009.5 |
| 20260506143720 | 76 | 155 | 0.0 | 7.0 | 0.00 | 0.00 | 0.00 | 83 | 1009.5 |
| 20260506143601 | 76 | 155 | 0.0 | 9.0 | 0.00 | 0.00 | 0.00 | 83 | 1009.6 |
| 20260506143505 | 76 | 155 | 0.0 | 9.0 | 0.00 | 0.00 | 0.00 | 83 | 1009.6 |
| 20260506143348 | 76 | 155 | 1.0 | 9.0 | 0.00 | 0.00 | 0.00 | 84 | 1009.5 |
| 20260506143252 | 76 | 155 | 1.0 | 9.0 | 0.00 | 0.00 | 0.00 | 83 | 1009.5 |
| 20260506143155 | 76 | 159 | 0.0 | 9.0 | 0.00 | 0.00 | 0.00 | 84 | 1009.5 |
| 20260506143119 | 76 | 187 | 1.0 | 9.0 | 0.00 | 0.00 | 0.00 | 84 | 1009.4 |
| 20260506143005 | 76 | 187 | 2.0 | 9.0 | 0.00 | 0.00 | 0.00 | 84 | 1009.4 |
| 20260506142848 | 76 | 200 | 4.0 | 9.0 | 0.00 | 0.00 | 0.00 | 83 | 1009.3 |
| 20260506142751 | 76 | 168 | 4.0 | 9.0 | 0.00 | 0.00 | 0.00 | 84 | 1009.3 |
| 20260506142655 | 76 | 172 | 4.0 | 8.0 | 0.00 | 0.00 | 0.00 | 83 | 1009.2 |
| 20260506142618 | 76 | 146 | 4.0 | 8.0 | 0.00 | 0.00 | 0.00 | 83 | 1009.1 |
| 20260506142521 | 76 | 165 | 3.0 | 7.0 | 0.00 | 0.00 | 0.00 | 83 | 1009.1 |
| 20260506142403 | 76 | 148 | 1.0 | 6.0 | 0.00 | 0.00 | 0.00 | 84 | 1009.0 |
| 20260506142250 | 76 | 182 | 2.0 | 6.0 | 0.00 | 0.00 | 0.00 | 85 | 1009.0 |
| 20260506142154 | 75 | 184 | 3.0 | 6.0 | 0.00 | 0.00 | 0.00 | 85 | 1009.0 |
| 20260506142117 | 75 | 192 | 3.0 | 7.0 | 0.00 | 0.00 | 0.00 | 85 | 1009.0 |
| 20260506142000 | 75 | 151 | 3.0 | 7.0 | 0.00 | 0.00 | 0.00 | 85 | 1009.0 |
| 20260506141904 | 75 | 151 | 3.0 | 7.0 | 0.00 | 0.00 | 0.00 | 85 | 1008.9 |
| 20260506141807 | 75 | 153 | 3.0 | 7.0 | 0.00 | 0.00 | 0.00 | 85 | 1009.0 |
| 20260506141710 | 75 | 129 | 3.0 | 7.0 | 0.00 | 0.00 | 0.00 | 85 | 1008.9 |
| 20260506141557 | 75 | 130 | 2.0 | 7.0 | 0.00 | 0.00 | 0.00 | 85 | 1008.9 |
| 20260506141459 | 75 | 155 | 2.0 | 7.0 | 0.00 | 0.00 | 0.00 | 85 | 1009.0 |
| 20260506141403 | 75 | 163 | 2.0 | 7.0 | 0.00 | 0.00 | 0.00 | 85 | 1009.0 |
| 20260506141307 | 75 | 163 | 2.0 | 7.0 | 0.00 | 0.00 | 0.00 | 85 | 1009.1 |
| 20260506141211 | 75 | 127 | 1.0 | 4.0 | 0.00 | 0.00 | 0.00 | 85 | 1009.2 |
| 20260506141054 | 75 | 126 | 1.0 | 4.0 | 0.00 | 0.00 | 0.00 | 85 | 1009.2 |
| 20260506141017 | 75 | 142 | 1.0 | 4.0 | 0.00 | 0.00 | 0.00 | 85 | 1009.4 |
| 20260506140904 | 75 | 142 | 1.0 | 4.0 | 0.00 | 0.00 | 0.00 | 85 | 1009.4 |
| 20260506140808 | 75 | 142 | 1.0 | 4.0 | 0.00 | 0.00 | 0.00 | 85 | 1009.4 |
| 20260506140712 | 75 | 143 | 1.0 | 4.0 | 0.00 | 0.00 | 0.00 | 85 | 1009.4 |
| 20260506140552 | 75 | 143 | 2.0 | 4.0 | 0.00 | 0.00 | 0.00 | 85 | 1009.4 |
| 20260506140456 | 75 | 143 | 1.0 | 4.0 | 0.00 | 0.00 | 0.00 | 86 | 1009.4 |
| 20260506140359 | 75 | 144 | 1.0 | 4.0 | 0.00 | 0.00 | 0.00 | 86 | 1009.5 |
| 20260506140303 | 75 | 147 | 0.0 | 4.0 | 0.00 | 0.00 | 0.00 | 86 | 1009.6 |
| 20260506140150 | 75 | 147 | 1.0 | 4.0 | 0.00 | 0.00 | 0.00 | 86 | 1009.6 |
| 20260506140054 | 74 | 146 | 2.0 | 4.0 | 0.00 | 0.00 | 0.00 | 86 | 1009.6 |
| 20260506140017 | 74 | 146 | 2.0 | 4.0 | 0.00 | 0.00 | 0.00 | 86 | 1009.6 |
| 20260506135920 | 74 | 139 | 2.0 | 4.0 | 0.00 | 0.00 | 0.00 | 86 | 1009.6 |
| 20260506135803 | 74 | 139 | 2.0 | 6.0 | 0.00 | 0.00 | 0.00 | 86 | 1009.5 |
| 20260506135706 | 74 | 148 | 2.0 | 8.0 | 0.00 | 0.00 | 0.00 | 86 | 1009.6 |
| 20260506135554 | 74 | 148 | 1.0 | 8.0 | 0.00 | 0.00 | 0.00 | 86 | 1009.5 |
| 20260506135458 | 74 | 148 | 1.0 | 8.0 | 0.00 | 0.00 | 0.00 | 86 | 1009.4 |
| 20260506135401 | 74 | 150 | 0.0 | 9.0 | 0.00 | 0.00 | 0.00 | 86 | 1009.4 |
| 20260506135306 | 74 | 150 | 1.0 | 9.0 | 0.00 | 0.00 | 0.00 | 86 | 1009.3 |
| 20260506135150 | 74 | 150 | 1.0 | 9.0 | 0.00 | 0.00 | 0.00 | 86 | 1009.1 |
| 20260506135114 | 74 | 153 | 2.0 | 9.0 | 0.00 | 0.00 | 0.00 | 86 | 1009.1 |
| 20260506135016 | 74 | 153 | 3.0 | 9.0 | 0.00 | 0.00 | 0.00 | 86 | 1009.0 |
| 20260506134903 | 74 | 153 | 4.0 | 9.0 | 0.00 | 0.00 | 0.00 | 86 | 1008.8 |
| 20260506134806 | 74 | 161 | 4.0 | 9.0 | 0.00 | 0.00 | 0.00 | 86 | 1008.8 |
| 20260506134650 | 74 | 161 | 4.0 | 10.0 | 0.00 | 0.00 | 0.00 | 87 | 1008.6 |
| 20260506134553 | 74 | 147 | 3.0 | 10.0 | 0.00 | 0.00 | 0.00 | 87 | 1008.6 |
| 20260506134456 | 74 | 150 | 4.0 | 10.0 | 0.00 | 0.00 | 0.00 | 87 | 1008.6 |
| 20260506134422 | 74 | 155 | 3.0 | 10.0 | 0.00 | 0.00 | 0.00 | 87 | 1008.5 |
| 20260506134324 | 74 | 157 | 3.0 | 10.0 | 0.00 | 0.00 | 0.00 | 87 | 1008.6 |
| 20260506134153 | 74 | 259 | 4.0 | 10.0 | 0.00 | 0.00 | 0.00 | 87 | 1008.6 |
| 20260506134057 | 74 | 151 | 5.0 | 10.0 | 0.00 | 0.00 | 0.00 | 87 | 1008.6 |
| 20260506134000 | 74 | 156 | 4.0 | 10.0 | 0.00 | 0.00 | 0.00 | 87 | 1008.7 |
| 20260506133904 | 74 | 165 | 2.0 | 10.0 | 0.00 | 0.00 | 0.00 | 87 | 1008.7 |
| 20260506133808 | 74 | 143 | 2.0 | 7.0 | 0.00 | 0.00 | 0.00 | 87 | 1008.7 |
| 20260506133651 | 74 | 155 | 2.0 | 7.0 | 0.00 | 0.00 | 0.00 | 87 | 1008.7 |
| 20260506133558 | 74 | 153 | 3.0 | 7.0 | 0.00 | 0.00 | 0.00 | 87 | 1008.7 |
| 20260506133501 | 74 | 154 | 4.0 | 7.0 | 0.00 | 0.00 | 0.00 | 87 | 1008.7 |
| 20260506133405 | 74 | 170 | 4.0 | 6.0 | 0.00 | 0.00 | 0.00 | 87 | 1008.7 |
| 20260506133329 | 74 | 166 | 5.0 | 7.0 | 0.00 | 0.00 | 0.00 | 87 | 1008.7 |
| 20260506133149 | 74 | 175 | 4.0 | 7.0 | 0.00 | 0.00 | 0.00 | 87 | 1008.7 |
| 20260506133114 | 74 | 153 | 5.0 | 7.0 | 0.00 | 0.00 | 0.00 | 87 | 1008.7 |
| 20260506132949 | 74 | 162 | 3.0 | 7.0 | 0.00 | 0.00 | 0.00 | 87 | 1008.7 |
| 20260506132857 | 74 | 177 | 2.0 | 7.0 | 0.00 | 0.00 | 0.00 | 87 | 1008.7 |
| 20260506132800 | 74 | 139 | 3.0 | 8.0 | 0.00 | 0.00 | 0.00 | 87 | 1008.6 |
| 20260506132704 | 74 | 151 | 3.0 | 8.0 | 0.00 | 0.00 | 0.00 | 87 | 1008.5 |
| 20260506132548 | 74 | 152 | 4.0 | 8.0 | 0.00 | 0.00 | 0.00 | 87 | 1008.5 |
| 20260506132512 | 74 | 169 | 4.0 | 8.0 | 0.00 | 0.00 | 0.00 | 87 | 1008.5 |
| 20260506132348 | 74 | 153 | 4.0 | 8.0 | 0.00 | 0.00 | 0.00 | 87 | 1008.5 |
| 20260506132256 | 74 | 144 | 4.0 | 8.0 | 0.00 | 0.00 | 0.00 | 87 | 1008.5 |
| 20260506132159 | 74 | 165 | 4.0 | 8.0 | 0.00 | 0.00 | 0.00 | 87 | 1008.5 |
| 20260506132059 | 74 | 126 | 4.0 | 9.0 | 0.00 | 0.00 | 0.00 | 87 | 1008.5 |
| 20260506132002 | 74 | 146 | 4.0 | 10.0 | 0.00 | 0.00 | 0.00 | 87 | 1008.6 |
| 20260506131906 | 74 | 152 | 4.0 | 10.0 | 0.00 | 0.00 | 0.00 | 87 | 1008.5 |
| 20260506131808 | 74 | 131 | 4.0 | 10.0 | 0.00 | 0.00 | 0.00 | 87 | 1008.5 |
| 20260506131652 | 74 | 145 | 3.0 | 10.0 | 0.00 | 0.00 | 0.00 | 87 | 1008.5 |
| 20260506131620 | 74 | 144 | 4.0 | 10.0 | 0.00 | 0.00 | 0.00 | 87 | 1008.5 |
| 20260506131503 | 74 | 157 | 4.0 | 10.0 | 0.00 | 0.00 | 0.00 | 87 | 1008.6 |
| 20260506131407 | 73 | 119 | 4.0 | 10.0 | 0.00 | 0.00 | 0.00 | 87 | 1008.5 |
| 20260506131310 | 74 | 166 | 5.0 | 10.0 | 0.00 | 0.00 | 0.00 | 88 | 1008.5 |
| 20260506131153 | 74 | 161 | 4.0 | 10.0 | 0.00 | 0.00 | 0.00 | 88 | 1008.5 |
| 20260506131057 | 74 | 30 | 3.0 | 8.0 | 0.00 | 0.00 | 0.00 | 88 | 1008.6 |
| 20260506131001 | 74 | 57 | 3.0 | 8.0 | 0.00 | 0.00 | 0.00 | 88 | 1008.6 |
| 20260506130849 | 74 | 146 | 2.0 | 8.0 | 0.00 | 0.00 | 0.00 | 88 | 1008.5 |
| 20260506130753 | 74 | 147 | 2.0 | 8.0 | 0.00 | 0.00 | 0.00 | 88 | 1008.5 |
| 20260506130657 | 74 | 124 | 2.0 | 8.0 | 0.00 | 0.00 | 0.00 | 88 | 1008.5 |
| 20260506130600 | 74 | 149 | 3.0 | 8.0 | 0.00 | 0.00 | 0.00 | 88 | 1008.4 |
| 20260506130503 | 74 | 138 | 3.0 | 8.0 | 0.00 | 0.00 | 0.00 | 88 | 1008.5 |
| 20260506130351 | 73 | 117 | 3.0 | 8.0 | 0.00 | 0.00 | 0.00 | 88 | 1008.4 |
| 20260506130254 | 73 | 108 | 4.0 | 8.0 | 0.00 | 0.00 | 0.00 | 88 | 1008.5 |
| 20260506130158 | 73 | 132 | 4.0 | 8.0 | 0.00 | 0.00 | 0.00 | 88 | 1008.4 |
| 20260506130101 | 73 | 97 | 3.0 | 8.0 | 0.00 | 0.00 | 0.00 | 88 | 1008.4 |
| 20260506130005 | 73 | 132 | 3.0 | 8.0 | 0.00 | 0.00 | 0.00 | 88 | 1008.4 |
| 20260506125848 | 74 | 133 | 3.0 | 8.0 | 0.00 | 0.00 | 0.00 | 88 | 1008.3 |
| 20260506125756 | 73 | 133 | 3.0 | 8.0 | 0.00 | 0.00 | 0.00 | 88 | 1008.3 |
| 20260506125700 | 73 | 145 | 4.0 | 8.0 | 0.00 | 0.00 | 0.00 | 88 | 1008.4 |
| 20260506125604 | 73 | 142 | 4.0 | 8.0 | 0.00 | 0.00 | 0.00 | 88 | 1008.4 |
| 20260506125507 | 73 | 156 | 3.0 | 8.0 | 0.00 | 0.00 | 0.00 | 88 | 1008.3 |
| 20260506125352 | 73 | 123 | 3.0 | 8.0 | 0.00 | 0.00 | 0.00 | 88 | 1008.2 |
| 20260506125255 | 73 | 105 | 3.0 | 8.0 | 0.00 | 0.00 | 0.00 | 88 | 1008.2 |
| 20260506125203 | 73 | 111 | 3.0 | 8.0 | 0.00 | 0.00 | 0.00 | 88 | 1008.2 |
| 20260506125107 | 73 | 146 | 3.0 | 8.0 | 0.00 | 0.00 | 0.00 | 88 | 1008.2 |
| 20260506124952 | 73 | 140 | 3.0 | 8.0 | 0.00 | 0.00 | 0.00 | 88 | 1008.2 |
| 20260506124854 | 73 | 135 | 3.0 | 8.0 | 0.00 | 0.00 | 0.00 | 88 | 1008.3 |
| 20260506124758 | 73 | 142 | 3.0 | 8.0 | 0.00 | 0.00 | 0.00 | 88 | 1008.2 |
| 20260506124702 | 73 | 134 | 3.0 | 8.0 | 0.00 | 0.00 | 0.00 | 88 | 1008.2 |
| 20260506124550 | 73 | 134 | 3.0 | 7.0 | 0.00 | 0.00 | 0.00 | 88 | 1008.2 |
| 20260506124453 | 73 | 136 | 3.0 | 7.0 | 0.00 | 0.00 | 0.00 | 88 | 1008.2 |
| 20260506124356 | 73 | 123 | 3.0 | 7.0 | 0.00 | 0.00 | 0.00 | 88 | 1008.1 |
| 20260506124300 | 73 | 132 | 3.0 | 7.0 | 0.00 | 0.00 | 0.00 | 88 | 1008.2 |
| 20260506124202 | 73 | 132 | 2.0 | 7.0 | 0.00 | 0.00 | 0.00 | 88 | 1008.2 |
| 20260506124106 | 73 | 133 | 2.0 | 7.0 | 0.00 | 0.00 | 0.00 | 88 | 1008.2 |
| 20260506123954 | 73 | 139 | 1.0 | 4.0 | 0.00 | 0.00 | 0.00 | 88 | 1008.2 |
| 20260506123857 | 73 | 140 | 1.0 | 4.0 | 0.00 | 0.00 | 0.00 | 88 | 1008.2 |
| 20260506123801 | 73 | 137 | 2.0 | 4.0 | 0.00 | 0.00 | 0.00 | 88 | 1008.2 |
| 20260506123706 | 73 | 138 | 2.0 | 4.0 | 0.00 | 0.00 | 0.00 | 88 | 1008.3 |
| 20260506123607 | 73 | 138 | 2.0 | 4.0 | 0.00 | 0.00 | 0.00 | 88 | 1008.2 |
| 20260506123511 | 73 | 138 | 1.0 | 4.0 | 0.00 | 0.00 | 0.00 | 88 | 1008.3 |
| 20260506123352 | 73 | 140 | 1.0 | 4.0 | 0.00 | 0.00 | 0.00 | 88 | 1008.3 |
| 20260506123252 | 73 | 141 | 1.0 | 5.0 | 0.00 | 0.00 | 0.00 | 88 | 1008.4 |
| 20260506123200 | 73 | 141 | 2.0 | 8.0 | 0.00 | 0.00 | 0.00 | 88 | 1008.4 |
| 20260506123123 | 73 | 141 | 3.0 | 8.0 | 0.00 | 0.00 | 0.00 | 88 | 1008.3 |
| 20260506123005 | 73 | 126 | 2.0 | 8.0 | 0.00 | 0.00 | 0.00 | 88 | 1008.4 |
| 20260506122850 | 73 | 126 | 1.0 | 8.0 | 0.00 | 0.00 | 0.00 | 88 | 1008.3 |
| 20260506122813 | 73 | 142 | 2.0 | 8.0 | 0.00 | 0.00 | 0.00 | 88 | 1008.3 |
| 20260506122655 | 73 | 142 | 3.0 | 8.0 | 0.00 | 0.00 | 0.00 | 88 | 1008.3 |
| 20260506122600 | 73 | 161 | 3.0 | 8.0 | 0.00 | 0.00 | 0.00 | 88 | 1008.3 |
| 20260506122508 | 73 | 140 | 3.0 | 8.0 | 0.00 | 0.00 | 0.00 | 88 | 1008.4 |
| 20260506122412 | 73 | 138 | 2.0 | 8.0 | 0.00 | 0.00 | 0.00 | 88 | 1008.4 |
| 20260506122253 | 73 | 123 | 1.0 | 4.0 | 0.00 | 0.00 | 0.00 | 88 | 1008.4 |
| 20260506122157 | 73 | 121 | 1.0 | 4.0 | 0.00 | 0.00 | 0.00 | 88 | 1008.5 |
| 20260506122101 | 73 | 121 | 1.0 | 4.0 | 0.00 | 0.00 | 0.00 | 88 | 1008.4 |
| 20260506122005 | 73 | 121 | 2.0 | 4.0 | 0.00 | 0.00 | 0.00 | 88 | 1008.3 |
| 20260506121852 | 73 | 121 | 1.0 | 4.0 | 0.00 | 0.00 | 0.00 | 88 | 1008.3 |
| 20260506121756 | 73 | 107 | 0.0 | 2.0 | 0.00 | 0.00 | 0.00 | 88 | 1008.4 |
| 20260506121659 | 73 | 106 | 0.0 | 3.0 | 0.00 | 0.00 | 0.00 | 88 | 1008.3 |
| 20260506121603 | 73 | 106 | 0.0 | 3.0 | 0.00 | 0.00 | 0.00 | 88 | 1008.4 |
| 20260506121506 | 73 | 144 | 0.0 | 3.0 | 0.00 | 0.00 | 0.00 | 88 | 1008.4 |
| 20260506121351 | 73 | 130 | 0.0 | 3.0 | 0.00 | 0.00 | 0.00 | 88 | 1008.3 |
| 20260506121258 | 73 | 132 | 0.0 | 3.0 | 0.00 | 0.00 | 0.00 | 88 | 1008.3 |
| 20260506121201 | 73 | 134 | 0.0 | 3.0 | 0.00 | 0.00 | 0.00 | 88 | 1008.4 |
| 20260506121105 | 73 | 134 | 0.0 | 3.0 | 0.00 | 0.00 | 0.00 | 88 | 1008.4 |
| 20260506120948 | 73 | 134 | 1.0 | 3.0 | 0.00 | 0.00 | 0.00 | 88 | 1008.4 |
| 20260506120852 | 73 | 134 | 1.0 | 3.0 | 0.00 | 0.00 | 0.00 | 88 | 1008.4 |
| 20260506120755 | 73 | 134 | 0.0 | 3.0 | 0.00 | 0.00 | 0.00 | 88 | 1008.4 |
| 20260506120705 | 73 | 134 | 0.0 | 3.0 | 0.00 | 0.00 | 0.00 | 88 | 1008.4 |
| 20260506120607 | 73 | 134 | 1.0 | 3.0 | 0.00 | 0.00 | 0.00 | 88 | 1008.4 |
| 20260506120451 | 73 | 134 | 1.0 | 3.0 | 0.00 | 0.00 | 0.00 | 88 | 1008.4 |
| 20260506120355 | 73 | 134 | 0.0 | 3.0 | 0.00 | 0.00 | 0.00 | 88 | 1008.3 |
| 20260506120258 | 73 | 134 | 0.0 | 3.0 | 0.00 | 0.00 | 0.00 | 88 | 1008.4 |
| 20260506120222 | 73 | 134 | 0.0 | 3.0 | 0.00 | 0.00 | 0.00 | 88 | 1008.4 |
| 20260506120049 | 73 | 134 | 0.0 | 3.0 | 0.00 | 0.00 | 0.00 | 88 | 1008.3 |
| 20260506115953 | 73 | 134 | 0.0 | 3.0 | 0.00 | 0.00 | 0.00 | 88 | 1008.3 |
| 20260506115856 | 73 | 134 | 0.0 | 3.0 | 0.00 | 0.00 | 0.00 | 88 | 1008.3 |
| 20260506115800 | 73 | 134 | 0.0 | 3.0 | 0.00 | 0.00 | 0.00 | 88 | 1008.3 |
| 20260506115703 | 73 | 134 | 0.0 | 3.0 | 0.00 | 0.00 | 0.00 | 88 | 1008.3 |
| 20260506115607 | 73 | 134 | 0.0 | 3.0 | 0.00 | 0.00 | 0.00 | 88 | 1008.3 |
| 20260506115514 | 73 | 134 | 1.0 | 3.0 | 0.00 | 0.00 | 0.00 | 88 | 1008.3 |
| 20260506115357 | 73 | 134 | 1.0 | 3.0 | 0.00 | 0.00 | 0.00 | 88 | 1008.2 |
| 20260506115300 | 73 | 134 | 0.0 | 7.0 | 0.00 | 0.00 | 0.00 | 88 | 1008.1 |
| 20260506115204 | 73 | 134 | 0.0 | 7.0 | 0.00 | 0.00 | 0.00 | 88 | 1008.2 |
| 20260506115107 | 73 | 134 | 1.0 | 7.0 | 0.00 | 0.00 | 0.00 | 88 | 1008.1 |
| 20260506115012 | 73 | 134 | 0.0 | 7.0 | 0.00 | 0.00 | 0.00 | 88 | 1008.3 |
| 20260506114853 | 73 | 134 | 0.0 | 7.0 | 0.00 | 0.00 | 0.00 | 87 | 1008.2 |
| 20260506114801 | 73 | 134 | 0.0 | 7.0 | 0.00 | 0.00 | 0.00 | 87 | 1008.1 |
| 20260506114703 | 73 | 134 | 0.0 | 7.0 | 0.00 | 0.00 | 0.00 | 87 | 1008.2 |
| 20260506114608 | 73 | 134 | 1.0 | 7.0 | 0.00 | 0.00 | 0.00 | 87 | 1008.2 |
| 20260506114508 | 73 | 134 | 2.0 | 7.0 | 0.00 | 0.00 | 0.00 | 87 | 1008.2 |
| 20260506114353 | 73 | 131 | 1.0 | 7.0 | 0.00 | 0.00 | 0.00 | 87 | 1008.3 |
| 20260506114257 | 74 | 128 | 0.0 | 1.0 | 0.00 | 0.00 | 0.00 | 87 | 1008.2 |
| 20260506114206 | 73 | 128 | 0.0 | 1.0 | 0.00 | 0.00 | 0.00 | 87 | 1008.2 |
| 20260506114049 | 74 | 128 | 0.0 | 1.0 | 0.00 | 0.00 | 0.00 | 87 | 1008.2 |
| 20260506114013 | 74 | 128 | 0.0 | 1.0 | 0.00 | 0.00 | 0.00 | 87 | 1008.2 |
| 20260506113849 | 74 | 128 | 0.0 | 2.0 | 0.00 | 0.00 | 0.00 | 87 | 1008.2 |
| 20260506113814 | 74 | 128 | 0.0 | 2.0 | 0.00 | 0.00 | 0.00 | 87 | 1008.2 |
| 20260506113649 | 74 | 128 | 0.0 | 2.0 | 0.00 | 0.00 | 0.00 | 87 | 1008.3 |
| 20260506113557 | 74 | 128 | 0.0 | 2.0 | 0.00 | 0.00 | 0.00 | 87 | 1008.3 |
| 20260506113500 | 74 | 128 | 0.0 | 2.0 | 0.00 | 0.00 | 0.00 | 87 | 1008.3 |
| 20260506113424 | 74 | 128 | 0.0 | 2.0 | 0.00 | 0.00 | 0.00 | 87 | 1008.2 |
| 20260506113306 | 74 | 128 | 0.0 | 2.0 | 0.00 | 0.00 | 0.00 | 87 | 1008.2 |
| 20260506113150 | 74 | 128 | 0.0 | 2.0 | 0.00 | 0.00 | 0.00 | 87 | 1008.3 |
| 20260506113054 | 74 | 128 | 0.0 | 2.0 | 0.00 | 0.00 | 0.00 | 87 | 1008.3 |
| 20260506112957 | 74 | 128 | 0.0 | 1.0 | 0.00 | 0.00 | 0.00 | 86 | 1008.2 |
| 20260506112905 | 74 | 128 | 0.0 | 3.0 | 0.00 | 0.00 | 0.00 | 86 | 1008.2 |
| 20260506112749 | 74 | 128 | 0.0 | 3.0 | 0.00 | 0.00 | 0.00 | 86 | 1008.3 |
| 20260506112652 | 74 | 128 | 0.0 | 3.0 | 0.00 | 0.00 | 0.00 | 86 | 1008.3 |
| 20260506112556 | 74 | 128 | 0.0 | 3.0 | 0.00 | 0.00 | 0.00 | 86 | 1008.3 |
| 20260506112459 | 74 | 128 | 0.0 | 3.0 | 0.00 | 0.00 | 0.00 | 86 | 1008.2 |
| 20260506112401 | 74 | 128 | 0.0 | 3.0 | 0.00 | 0.00 | 0.00 | 86 | 1008.3 |
| 20260506112248 | 74 | 128 | 0.0 | 3.0 | 0.00 | 0.00 | 0.00 | 86 | 1008.3 |
| 20260506112212 | 74 | 128 | 1.0 | 3.0 | 0.00 | 0.00 | 0.00 | 86 | 1008.3 |
| 20260506112115 | 74 | 128 | 1.0 | 3.0 | 0.00 | 0.00 | 0.00 | 86 | 1008.2 |
| 20260506111951 | 74 | 128 | 1.0 | 3.0 | 0.00 | 0.00 | 0.00 | 86 | 1008.2 |
| 20260506111915 | 74 | 128 | 1.0 | 3.0 | 0.00 | 0.00 | 0.00 | 86 | 1008.2 |
| 20260506111757 | 74 | 128 | 1.0 | 6.0 | 0.00 | 0.00 | 0.00 | 86 | 1008.2 |
| 20260506111700 | 74 | 128 | 1.0 | 6.0 | 0.00 | 0.00 | 0.00 | 86 | 1008.3 |
| 20260506111548 | 74 | 128 | 0.0 | 6.0 | 0.00 | 0.00 | 0.00 | 86 | 1008.3 |
| 20260506111512 | 74 | 128 | 0.0 | 6.0 | 0.00 | 0.00 | 0.00 | 86 | 1008.3 |
| 20260506111354 | 74 | 128 | 0.0 | 6.0 | 0.00 | 0.00 | 0.00 | 86 | 1008.2 |
| 20260506111317 | 74 | 128 | 0.0 | 6.0 | 0.00 | 0.00 | 0.00 | 86 | 1008.2 |
| 20260506111200 | 74 | 128 | 1.0 | 6.0 | 0.00 | 0.00 | 0.00 | 86 | 1008.2 |
| 20260506111103 | 74 | 128 | 2.0 | 6.0 | 0.00 | 0.00 | 0.00 | 86 | 1008.2 |
| 20260506111007 | 74 | 128 | 2.0 | 6.0 | 0.00 | 0.00 | 0.00 | 86 | 1008.1 |
| 20260506110914 | 74 | 123 | 1.0 | 4.0 | 0.00 | 0.00 | 0.00 | 86 | 1008.2 |
| 20260506110757 | 74 | 123 | 1.0 | 4.0 | 0.00 | 0.00 | 0.00 | 86 | 1008.1 |
| 20260506110702 | 74 | 195 | 0.0 | 1.0 | 0.00 | 0.00 | 0.00 | 86 | 1008.2 |
| 20260506110624 | 74 | 195 | 0.0 | 2.0 | 0.00 | 0.00 | 0.00 | 86 | 1008.1 |
| 20260506110507 | 74 | 195 | 0.0 | 2.0 | 0.00 | 0.00 | 0.00 | 86 | 1008.1 |
| 20260506110352 | 74 | 195 | 0.0 | 2.0 | 0.00 | 0.00 | 0.00 | 86 | 1008.1 |
| 20260506110254 | 74 | 195 | 0.0 | 2.0 | 0.00 | 0.00 | 0.00 | 86 | 1008.1 |
| 20260506110202 | 74 | 195 | 0.0 | 2.0 | 0.00 | 0.00 | 0.00 | 86 | 1008.2 |
| 20260506110105 | 74 | 195 | 0.0 | 3.0 | 0.00 | 0.00 | 0.00 | 86 | 1008.1 |
| 20260506105949 | 74 | 195 | 0.0 | 3.0 | 0.00 | 0.00 | 0.00 | 86 | 1008.1 |
| 20260506105852 | 74 | 195 | 0.0 | 3.0 | 0.00 | 0.00 | 0.00 | 86 | 1008.1 |
| 20260506105754 | 74 | 195 | 1.0 | 3.0 | 0.00 | 0.00 | 0.00 | 86 | 1008.1 |
| 20260506105659 | 74 | 195 | 1.0 | 3.0 | 0.00 | 0.00 | 0.00 | 86 | 1008.0 |
| 20260506105606 | 74 | 196 | 1.0 | 3.0 | 0.00 | 0.00 | 0.00 | 86 | 1008.0 |
| 20260506105510 | 74 | 198 | 0.0 | 5.0 | 0.00 | 0.00 | 0.00 | 86 | 1008.1 |
| 20260506105352 | 74 | 198 | 1.0 | 6.0 | 0.00 | 0.00 | 0.00 | 86 | 1008.1 |
| 20260506105256 | 74 | 198 | 1.0 | 6.0 | 0.00 | 0.00 | 0.00 | 86 | 1008.0 |
| 20260506105158 | 74 | 198 | 0.0 | 6.0 | 0.00 | 0.00 | 0.00 | 86 | 1008.0 |
| 20260506105102 | 74 | 198 | 1.0 | 6.0 | 0.00 | 0.00 | 0.00 | 86 | 1008.0 |
| 20260506105004 | 74 | 198 | 1.0 | 6.0 | 0.00 | 0.00 | 0.00 | 86 | 1008.0 |
| 20260506104853 | 74 | 198 | 1.0 | 6.0 | 0.00 | 0.00 | 0.00 | 86 | 1008.1 |
| 20260506104756 | 74 | 198 | 2.0 | 6.0 | 0.00 | 0.00 | 0.00 | 86 | 1008.0 |
| 20260506104659 | 74 | 199 | 3.0 | 6.0 | 0.00 | 0.00 | 0.00 | 86 | 1008.0 |
| 20260506104603 | 74 | 192 | 3.0 | 6.0 | 0.00 | 0.00 | 0.00 | 86 | 1007.9 |
| 20260506104506 | 74 | 204 | 1.0 | 6.0 | 0.00 | 0.00 | 0.00 | 87 | 1007.9 |
| 20260506104350 | 74 | 202 | 0.0 | 7.0 | 0.00 | 0.00 | 0.00 | 87 | 1007.9 |
| 20260506104257 | 74 | 202 | 1.0 | 7.0 | 0.00 | 0.00 | 0.00 | 87 | 1007.9 |
| 20260506104222 | 74 | 202 | 1.0 | 7.0 | 0.00 | 0.00 | 0.00 | 87 | 1008.0 |
| 20260506104104 | 74 | 202 | 1.0 | 7.0 | 0.00 | 0.00 | 0.00 | 87 | 1007.9 |
| 20260506104028 | 74 | 202 | 3.0 | 7.0 | 0.00 | 0.00 | 0.00 | 87 | 1007.9 |
| 20260506103852 | 74 | 205 | 3.0 | 7.0 | 0.00 | 0.00 | 0.00 | 87 | 1007.9 |
| 20260506103755 | 74 | 215 | 3.0 | 8.0 | 0.00 | 0.00 | 0.00 | 87 | 1007.9 |
| 20260506103720 | 74 | 218 | 4.0 | 8.0 | 0.00 | 0.00 | 0.00 | 87 | 1007.9 |
| 20260506103605 | 74 | 202 | 4.0 | 9.0 | 0.00 | 0.00 | 0.00 | 87 | 1007.8 |
| 20260506103449 | 74 | 201 | 4.0 | 9.0 | 0.00 | 0.00 | 0.00 | 87 | 1007.8 |
| 20260506103413 | 74 | 198 | 4.0 | 9.0 | 0.00 | 0.00 | 0.00 | 87 | 1007.8 |
| 20260506103249 | 74 | 198 | 4.0 | 9.0 | 0.00 | 0.00 | 0.00 | 87 | 1007.8 |
| 20260506103213 | 74 | 227 | 4.0 | 9.0 | 0.00 | 0.00 | 0.00 | 87 | 1007.8 |
| 20260506103049 | 74 | 211 | 5.0 | 9.0 | 0.00 | 0.00 | 0.00 | 87 | 1007.7 |
| 20260506102957 | 74 | 221 | 5.0 | 9.0 | 0.00 | 0.00 | 0.00 | 87 | 1007.7 |
| 20260506102900 | 74 | 217 | 5.0 | 9.0 | 0.00 | 0.00 | 0.00 | 87 | 1007.7 |
| 20260506102804 | 74 | 174 | 5.0 | 9.0 | 0.00 | 0.00 | 0.00 | 87 | 1007.7 |
| 20260506102729 | 74 | 213 | 5.0 | 9.0 | 0.00 | 0.00 | 0.00 | 87 | 1007.7 |
| 20260506102550 | 74 | 202 | 3.0 | 9.0 | 0.00 | 0.00 | 0.00 | 87 | 1007.6 |
| 20260506102515 | 74 | 201 | 3.0 | 8.0 | 0.00 | 0.00 | 0.00 | 87 | 1007.6 |
| 20260506102351 | 74 | 204 | 4.0 | 8.0 | 0.00 | 0.00 | 0.00 | 87 | 1007.6 |
| 20260506102258 | 74 | 200 | 4.0 | 8.0 | 0.00 | 0.00 | 0.00 | 87 | 1007.5 |
| 20260506102202 | 74 | 204 | 4.0 | 9.0 | 0.00 | 0.00 | 0.00 | 87 | 1007.5 |
| 20260506102105 | 74 | 225 | 3.0 | 9.0 | 0.00 | 0.00 | 0.00 | 87 | 1007.6 |
| 20260506101948 | 74 | 192 | 3.0 | 10.0 | 0.00 | 0.00 | 0.00 | 87 | 1007.5 |
| 20260506101852 | 74 | 189 | 4.0 | 10.0 | 0.00 | 0.00 | 0.00 | 86 | 1007.5 |
| 20260506101815 | 74 | 211 | 5.0 | 10.0 | 0.00 | 0.00 | 0.00 | 87 | 1007.5 |
| 20260506101701 | 74 | 225 | 5.0 | 10.0 | 0.00 | 0.00 | 0.00 | 86 | 1007.5 |
| 20260506101605 | 74 | 201 | 5.0 | 10.0 | 0.00 | 0.00 | 0.00 | 86 | 1007.5 |
| 20260506101448 | 74 | 206 | 4.0 | 12.0 | 0.00 | 0.00 | 0.00 | 86 | 1007.4 |
| 20260506101351 | 74 | 221 | 5.0 | 12.0 | 0.00 | 0.00 | 0.00 | 86 | 1007.4 |
| 20260506101255 | 74 | 210 | 6.0 | 12.0 | 0.00 | 0.00 | 0.00 | 86 | 1007.4 |
| 20260506101219 | 74 | 240 | 7.0 | 14.0 | 0.00 | 0.00 | 0.00 | 86 | 1007.4 |
| 20260506101100 | 74 | 185 | 6.0 | 14.0 | 0.00 | 0.00 | 0.00 | 86 | 1007.4 |
| 20260506101004 | 74 | 186 | 6.0 | 14.0 | 0.00 | 0.00 | 0.00 | 86 | 1007.4 |
| 20260506100852 | 74 | 217 | 6.0 | 14.0 | 0.00 | 0.00 | 0.00 | 86 | 1007.4 |
| 20260506100755 | 74 | 200 | 7.0 | 14.0 | 0.00 | 0.00 | 0.00 | 86 | 1007.4 |
| 20260506100720 | 74 | 207 | 8.0 | 14.0 | 0.00 | 0.00 | 0.00 | 86 | 1007.4 |
| 20260506100602 | 74 | 223 | 8.0 | 14.0 | 0.00 | 0.00 | 0.00 | 86 | 1007.4 |
| 20260506100506 | 74 | 221 | 8.0 | 14.0 | 0.00 | 0.00 | 0.00 | 86 | 1007.3 |
| 20260506100429 | 74 | 188 | 7.0 | 14.0 | 0.00 | 0.00 | 0.00 | 86 | 1007.5 |
| 20260506100256 | 74 | 198 | 7.0 | 14.0 | 0.00 | 0.00 | 0.00 | 86 | 1007.4 |
| 20260506100159 | 74 | 212 | 7.0 | 14.0 | 0.00 | 0.00 | 0.00 | 86 | 1007.5 |
| 20260506100005 | 74 | 193 | 7.0 | 14.0 | 0.00 | 0.00 | 0.00 | 86 | 1007.5 |
| 20260506095850 | 74 | 231 | 6.0 | 14.0 | 0.00 | 0.00 | 0.00 | 86 | 1007.4 |
| 20260506095753 | 74 | 212 | 6.0 | 11.0 | 0.00 | 0.00 | 0.00 | 86 | 1007.4 |
| 20260506095701 | 74 | 215 | 6.0 | 11.0 | 0.00 | 0.00 | 0.00 | 86 | 1007.4 |
| 20260506095605 | 74 | 229 | 6.0 | 13.0 | 0.00 | 0.00 | 0.00 | 86 | 1007.4 |
| 20260506095510 | 74 | 187 | 6.0 | 13.0 | 0.00 | 0.00 | 0.00 | 86 | 1007.3 |
| 20260506095352 | 74 | 206 | 6.0 | 13.0 | 0.00 | 0.00 | 0.00 | 86 | 1007.3 |
| 20260506095256 | 74 | 205 | 6.0 | 13.0 | 0.00 | 0.00 | 0.00 | 86 | 1007.3 |
| 20260506095218 | 74 | 201 | 5.0 | 13.0 | 0.00 | 0.00 | 0.00 | 86 | 1007.2 |
| 20260506095101 | 74 | 204 | 6.0 | 13.0 | 0.00 | 0.00 | 0.00 | 86 | 1007.3 |
| 20260506094949 | 74 | 192 | 7.0 | 13.0 | 0.00 | 0.00 | 0.00 | 86 | 1007.3 |
| 20260506094854 | 74 | 182 | 7.0 | 15.0 | 0.00 | 0.00 | 0.00 | 86 | 1007.3 |
| 20260506094758 | 74 | 215 | 8.0 | 15.0 | 0.00 | 0.00 | 0.00 | 86 | 1007.2 |
| 20260506094702 | 74 | 228 | 8.0 | 15.0 | 0.00 | 0.00 | 0.00 | 86 | 1007.3 |
| 20260506094606 | 74 | 180 | 7.0 | 15.0 | 0.00 | 0.00 | 0.00 | 86 | 1007.3 |
| 20260506094452 | 74 | 215 | 6.0 | 15.0 | 0.00 | 0.00 | 0.00 | 86 | 1007.3 |
| 20260506094355 | 74 | 186 | 7.0 | 15.0 | 0.00 | 0.00 | 0.00 | 86 | 1007.3 |
| 20260506094259 | 74 | 200 | 7.0 | 15.0 | 0.00 | 0.00 | 0.00 | 86 | 1007.2 |
| 20260506094203 | 74 | 188 | 7.0 | 15.0 | 0.00 | 0.00 | 0.00 | 86 | 1007.2 |
| 20260506094106 | 74 | 185 | 5.0 | 15.0 | 0.00 | 0.00 | 0.00 | 86 | 1007.3 |
| 20260506093951 | 74 | 205 | 5.0 | 10.0 | 0.00 | 0.00 | 0.00 | 86 | 1007.3 |
| 20260506093854 | 74 | 229 | 5.0 | 10.0 | 0.00 | 0.00 | 0.00 | 86 | 1007.2 |
| 20260506093801 | 74 | 214 | 5.0 | 11.0 | 0.00 | 0.00 | 0.00 | 86 | 1007.2 |
| 20260506093706 | 74 | 217 | 5.0 | 11.0 | 0.00 | 0.00 | 0.00 | 86 | 1007.1 |
| 20260506093629 | 74 | 193 | 6.0 | 11.0 | 0.00 | 0.00 | 0.00 | 86 | 1007.2 |
| 20260506093511 | 74 | 205 | 6.0 | 11.0 | 0.00 | 0.00 | 0.00 | 86 | 1007.1 |
| 20260506093353 | 74 | 195 | 5.0 | 11.0 | 0.00 | 0.00 | 0.00 | 86 | 1007.1 |
| 20260506093256 | 74 | 215 | 6.0 | 11.0 | 0.00 | 0.00 | 0.00 | 86 | 1007.2 |
| 20260506093200 | 74 | 184 | 6.0 | 11.0 | 0.00 | 0.00 | 0.00 | 86 | 1007.1 |
| 20260506093107 | 74 | 219 | 7.0 | 11.0 | 0.00 | 0.00 | 0.00 | 86 | 1007.0 |
| 20260506092950 | 74 | 198 | 6.0 | 11.0 | 0.00 | 0.00 | 0.00 | 86 | 1007.1 |
| 20260506092854 | 74 | 218 | 6.0 | 11.0 | 0.00 | 0.00 | 0.00 | 86 | 1007.1 |
| 20260506092817 | 74 | 209 | 6.0 | 11.0 | 0.00 | 0.00 | 0.00 | 86 | 1007.0 |
| 20260506092659 | 74 | 196 | 6.0 | 12.0 | 0.00 | 0.00 | 0.00 | 86 | 1007.0 |
| 20260506092603 | 74 | 238 | 6.0 | 12.0 | 0.00 | 0.00 | 0.00 | 86 | 1007.1 |
| 20260506092526 | 74 | 204 | 6.0 | 13.0 | 0.00 | 0.00 | 0.00 | 86 | 1007.0 |
| 20260506092413 | 74 | 209 | 6.0 | 14.0 | 0.00 | 0.00 | 0.00 | 86 | 1007.0 |
| 20260506092249 | 74 | 207 | 6.0 | 14.0 | 0.00 | 0.00 | 0.00 | 86 | 1007.0 |
| 20260506092213 | 74 | 215 | 6.0 | 14.0 | 0.00 | 0.00 | 0.00 | 86 | 1007.0 |
| 20260506092049 | 74 | 209 | 7.0 | 14.0 | 0.00 | 0.00 | 0.00 | 86 | 1007.0 |
| 20260506091953 | 74 | 211 | 7.0 | 14.0 | 0.00 | 0.00 | 0.00 | 86 | 1007.0 |
| 20260506091857 | 74 | 221 | 7.0 | 14.0 | 0.00 | 0.00 | 0.00 | 86 | 1007.0 |
| 20260506091804 | 74 | 174 | 7.0 | 14.0 | 0.00 | 0.00 | 0.00 | 86 | 1007.0 |
| 20260506091648 | 74 | 191 | 8.0 | 14.0 | 0.00 | 0.00 | 0.00 | 86 | 1007.0 |
| 20260506091612 | 74 | 204 | 8.0 | 14.0 | 0.00 | 0.00 | 0.00 | 86 | 1007.0 |
| 20260506091454 | 74 | 192 | 8.0 | 13.0 | 0.00 | 0.00 | 0.00 | 86 | 1007.0 |
| 20260506091358 | 74 | 228 | 6.0 | 13.0 | 0.00 | 0.00 | 0.00 | 86 | 1007.0 |
| 20260506091301 | 74 | 214 | 7.0 | 13.0 | 0.00 | 0.00 | 0.00 | 86 | 1007.0 |
| 20260506091149 | 74 | 171 | 7.0 | 13.0 | 0.00 | 0.00 | 0.00 | 86 | 1007.0 |
| 20260506091052 | 74 | 184 | 7.0 | 14.0 | 0.00 | 0.00 | 0.00 | 86 | 1007.0 |
| 20260506090956 | 74 | 192 | 6.0 | 13.0 | 0.00 | 0.00 | 0.00 | 86 | 1006.9 |
| 20260506090858 | 74 | 219 | 5.0 | 13.0 | 0.00 | 0.00 | 0.00 | 86 | 1006.8 |
| 20260506090801 | 74 | 207 | 5.0 | 13.0 | 0.00 | 0.00 | 0.00 | 86 | 1006.9 |
| 20260506090706 | 74 | 190 | 5.0 | 13.0 | 0.00 | 0.00 | 0.00 | 86 | 1006.9 |
| 20260506090628 | 74 | 173 | 6.0 | 13.0 | 0.00 | 0.00 | 0.00 | 86 | 1006.9 |
| 20260506090455 | 74 | 186 | 7.0 | 13.0 | 0.00 | 0.00 | 0.00 | 86 | 1006.8 |
| 20260506090359 | 74 | 223 | 7.0 | 13.0 | 0.00 | 0.00 | 0.00 | 86 | 1006.9 |
| 20260506090323 | 74 | 225 | 7.0 | 14.0 | 0.00 | 0.00 | 0.00 | 86 | 1006.9 |
| 20260506090205 | 74 | 220 | 7.0 | 14.0 | 0.00 | 0.00 | 0.00 | 86 | 1006.8 |
| 20260506090050 | 74 | 211 | 7.0 | 14.0 | 0.00 | 0.00 | 0.00 | 86 | 1006.9 |
| 20260506085953 | 74 | 175 | 7.0 | 14.0 | 0.00 | 0.00 | 0.00 | 86 | 1006.9 |
| 20260506085856 | 74 | 198 | 8.0 | 14.0 | 0.00 | 0.00 | 0.00 | 86 | 1006.8 |
| 20260506085824 | 74 | 196 | 7.0 | 14.0 | 0.00 | 0.00 | 0.00 | 86 | 1006.9 |
| 20260506085707 | 74 | 207 | 6.0 | 14.0 | 0.00 | 0.00 | 0.00 | 86 | 1006.9 |
| 20260506085550 | 74 | 178 | 7.0 | 14.0 | 0.00 | 0.00 | 0.00 | 86 | 1007.0 |
| 20260506085453 | 74 | 184 | 8.0 | 14.0 | 0.00 | 0.00 | 0.00 | 86 | 1006.9 |
| 20260506085356 | 74 | 205 | 8.0 | 14.0 | 0.00 | 0.00 | 0.00 | 86 | 1006.9 |
| 20260506085300 | 74 | 178 | 7.0 | 14.0 | 0.00 | 0.00 | 0.00 | 86 | 1006.9 |
| 20260506085203 | 74 | 198 | 6.0 | 14.0 | 0.00 | 0.00 | 0.00 | 86 | 1006.8 |
| 20260506085051 | 74 | 215 | 7.0 | 14.0 | 0.00 | 0.00 | 0.00 | 86 | 1006.8 |
| 20260506084955 | 74 | 217 | 7.0 | 13.0 | 0.00 | 0.00 | 0.00 | 86 | 1006.9 |
| 20260506084857 | 74 | 202 | 7.0 | 12.0 | 0.00 | 0.00 | 0.00 | 86 | 1006.9 |
| 20260506084801 | 74 | 221 | 6.0 | 11.0 | 0.00 | 0.00 | 0.00 | 86 | 1006.8 |
| 20260506084704 | 74 | 180 | 8.0 | 11.0 | 0.00 | 0.00 | 0.00 | 86 | 1006.8 |
| 20260506084548 | 74 | 231 | 8.0 | 12.0 | 0.00 | 0.00 | 0.00 | 86 | 1006.8 |
| 20260506084455 | 74 | 221 | 6.0 | 12.0 | 0.00 | 0.00 | 0.00 | 86 | 1006.8 |
| 20260506084359 | 74 | 184 | 5.0 | 11.0 | 0.00 | 0.00 | 0.00 | 86 | 1006.7 |
| 20260506084303 | 74 | 220 | 5.0 | 11.0 | 0.00 | 0.00 | 0.00 | 86 | 1006.8 |
| 20260506084206 | 74 | 201 | 5.0 | 11.0 | 0.00 | 0.00 | 0.00 | 86 | 1006.9 |
| 20260506084050 | 74 | 227 | 5.0 | 11.0 | 0.00 | 0.00 | 0.00 | 86 | 1006.9 |
| 20260506084013 | 74 | 168 | 5.0 | 11.0 | 0.00 | 0.00 | 0.00 | 86 | 1006.9 |
| 20260506083900 | 74 | 197 | 5.0 | 11.0 | 0.00 | 0.00 | 0.00 | 86 | 1007.0 |
| 20260506083805 | 74 | 200 | 6.0 | 11.0 | 0.00 | 0.00 | 0.00 | 86 | 1007.0 |
| 20260506083648 | 74 | 184 | 6.0 | 12.0 | 0.00 | 0.00 | 0.00 | 86 | 1007.0 |
| 20260506083552 | 74 | 199 | 5.0 | 12.0 | 0.00 | 0.00 | 0.00 | 86 | 1007.0 |
| 20260506083515 | 74 | 213 | 5.0 | 16.0 | 0.00 | 0.00 | 0.00 | 86 | 1006.9 |
| 20260506083357 | 74 | 205 | 5.0 | 16.0 | 0.00 | 0.00 | 0.00 | 86 | 1006.9 |
| 20260506083301 | 74 | 193 | 5.0 | 16.0 | 0.00 | 0.00 | 0.00 | 86 | 1006.9 |
| 20260506083228 | 74 | 193 | 6.0 | 16.0 | 0.00 | 0.00 | 0.00 | 86 | 1006.8 |
| 20260506083111 | 74 | 215 | 6.0 | 16.0 | 0.00 | 0.00 | 0.00 | 86 | 1007.0 |
| 20260506083013 | 74 | 188 | 6.0 | 16.0 | 0.00 | 0.00 | 0.00 | 86 | 1006.9 |
| 20260506082856 | 74 | 197 | 8.0 | 16.0 | 0.00 | 0.00 | 0.00 | 86 | 1006.8 |
| 20260506082759 | 74 | 222 | 9.0 | 16.0 | 0.00 | 0.00 | 0.00 | 86 | 1006.8 |
| 20260506082703 | 74 | 207 | 8.0 | 16.0 | 0.00 | 0.00 | 0.00 | 86 | 1006.7 |
| 20260506082606 | 74 | 226 | 7.0 | 16.0 | 0.00 | 0.00 | 0.00 | 86 | 1006.8 |
| 20260506082454 | 74 | 184 | 8.0 | 16.0 | 0.00 | 0.00 | 0.00 | 86 | 1006.9 |
| 20260506082417 | 74 | 193 | 8.0 | 16.0 | 0.00 | 0.00 | 0.00 | 86 | 1006.8 |
| 20260506082300 | 74 | 209 | 6.0 | 16.0 | 0.00 | 0.00 | 0.00 | 86 | 1006.9 |
| 20260506082203 | 74 | 218 | 7.0 | 16.0 | 0.00 | 0.00 | 0.00 | 86 | 1006.9 |
| 20260506082107 | 74 | 175 | 7.0 | 16.0 | 0.00 | 0.00 | 0.00 | 86 | 1006.9 |
| 20260506081952 | 74 | 172 | 7.0 | 16.0 | 0.00 | 0.00 | 0.00 | 86 | 1006.9 |
| 20260506081855 | 74 | 167 | 8.0 | 16.0 | 0.00 | 0.00 | 0.00 | 86 | 1006.9 |
| 20260506081823 | 74 | 207 | 7.0 | 14.0 | 0.00 | 0.00 | 0.00 | 86 | 1007.0 |
| 20260506081704 | 74 | 175 | 5.0 | 12.0 | 0.00 | 0.00 | 0.00 | 86 | 1006.9 |
| 20260506081549 | 74 | 194 | 5.0 | 18.0 | 0.00 | 0.00 | 0.00 | 86 | 1006.9 |
| 20260506081512 | 74 | 195 | 6.0 | 18.0 | 0.00 | 0.00 | 0.00 | 86 | 1006.9 |
| 20260506081435 | 74 | 196 | 5.0 | 18.0 | 0.00 | 0.00 | 0.00 | 86 | 1006.9 |
| 20260506081251 | 74 | 175 | 5.0 | 18.0 | 0.00 | 0.00 | 0.00 | 86 | 1007.0 |
| 20260506081155 | 74 | 180 | 5.0 | 18.0 | 0.00 | 0.00 | 0.00 | 86 | 1007.0 |
| 20260506081102 | 74 | 200 | 6.0 | 18.0 | 0.00 | 0.00 | 0.00 | 86 | 1007.0 |
| 20260506081006 | 74 | 180 | 6.0 | 18.0 | 0.00 | 0.00 | 0.00 | 86 | 1006.9 |
| 20260506080910 | 74 | 202 | 7.0 | 18.0 | 0.00 | 0.00 | 0.00 | 86 | 1007.0 |
| 20260506080753 | 74 | 186 | 7.0 | 17.0 | 0.00 | 0.00 | 0.00 | 86 | 1007.0 |
| 20260506080658 | 74 | 213 | 5.0 | 15.0 | 0.00 | 0.00 | 0.00 | 86 | 1007.0 |
| 20260506080600 | 74 | 194 | 6.0 | 15.0 | 0.00 | 0.00 | 0.00 | 86 | 1007.0 |
| 20260506080448 | 74 | 193 | 6.0 | 15.0 | 0.00 | 0.00 | 0.00 | 86 | 1006.9 |
| 20260506080352 | 74 | 202 | 5.0 | 16.0 | 0.00 | 0.00 | 0.00 | 86 | 1006.9 |
| 20260506080255 | 74 | 196 | 6.0 | 16.0 | 0.00 | 0.00 | 0.00 | 86 | 1007.0 |
| 20260506080217 | 74 | 204 | 5.0 | 16.0 | 0.00 | 0.00 | 0.00 | 86 | 1007.0 |
| 20260506073513 | 74 | 207 | 9.0 | 15.0 | 0.00 | 0.00 | 0.00 | 86 | 1007.2 |
| 20260506073349 | 74 | 200 | 8.0 | 15.0 | 0.00 | 0.00 | 0.00 | 86 | 1007.3 |
| 20260506073253 | 74 | 212 | 7.0 | 16.0 | 0.00 | 0.00 | 0.00 | 86 | 1007.3 |
| 20260506073156 | 74 | 217 | 7.0 | 15.0 | 0.00 | 0.00 | 0.00 | 86 | 1007.3 |
| 20260506073100 | 74 | 182 | 8.0 | 15.0 | 0.00 | 0.00 | 0.00 | 86 | 1007.3 |
| 20260506073003 | 74 | 184 | 7.0 | 15.0 | 0.00 | 0.00 | 0.00 | 86 | 1007.4 |
| 20260506072852 | 74 | 210 | 6.0 | 15.0 | 0.00 | 0.00 | 0.00 | 86 | 1007.4 |
| 20260506072755 | 74 | 200 | 7.0 | 15.0 | 0.00 | 0.00 | 0.00 | 86 | 1007.4 |
| 20260506072718 | 74 | 240 | 8.0 | 15.0 | 0.00 | 0.00 | 0.00 | 86 | 1007.5 |
| 20260506072620 | 74 | 208 | 8.0 | 20.0 | 0.00 | 0.00 | 0.00 | 86 | 1007.4 |
| 20260506072502 | 74 | 208 | 7.0 | 20.0 | 0.00 | 0.00 | 0.00 | 86 | 1007.4 |
| 20260506072406 | 74 | 208 | 7.0 | 20.0 | 0.00 | 0.00 | 0.00 | 86 | 1007.4 |
| 20260506072254 | 74 | 194 | 7.0 | 20.0 | 0.00 | 0.00 | 0.00 | 86 | 1007.5 |
| 20260506072158 | 74 | 190 | 6.0 | 20.0 | 0.00 | 0.00 | 0.00 | 86 | 1007.4 |
| 20260506072122 | 74 | 182 | 5.0 | 20.0 | 0.00 | 0.00 | 0.00 | 86 | 1007.5 |
| 20260506072004 | 74 | 198 | 7.0 | 20.0 | 0.00 | 0.00 | 0.00 | 86 | 1007.4 |
| 20260506071908 | 74 | 213 | 9.0 | 20.0 | 0.00 | 0.00 | 0.00 | 86 | 1007.4 |
| 20260506071811 | 74 | 213 | 9.0 | 20.0 | 0.00 | 0.00 | 0.00 | 85 | 1007.4 |
| 20260506071653 | 74 | 233 | 8.0 | 18.0 | 0.00 | 0.00 | 0.00 | 85 | 1007.4 |
| 20260506071601 | 74 | 175 | 9.0 | 18.0 | 0.00 | 0.00 | 0.00 | 85 | 1007.5 |
| 20260506071505 | 74 | 223 | 9.0 | 18.0 | 0.00 | 0.00 | 0.00 | 85 | 1007.5 |
| 20260506071349 | 74 | 208 | 8.0 | 18.0 | 0.00 | 0.00 | 0.00 | 85 | 1007.5 |
| 20260506071251 | 74 | 205 | 8.0 | 18.0 | 0.00 | 0.00 | 0.00 | 85 | 1007.5 |
| 20260506071215 | 74 | 197 | 7.0 | 18.0 | 0.00 | 0.00 | 0.00 | 85 | 1007.5 |
| 20260506071057 | 74 | 196 | 7.0 | 18.0 | 0.00 | 0.00 | 0.00 | 85 | 1007.5 |
| 20260506071001 | 74 | 200 | 7.0 | 17.0 | 0.00 | 0.00 | 0.00 | 85 | 1007.5 |
| 20260506070909 | 74 | 193 | 6.0 | 17.0 | 0.00 | 0.00 | 0.00 | 85 | 1007.5 |
| 20260506070811 | 74 | 195 | 6.0 | 17.0 | 0.00 | 0.00 | 0.00 | 85 | 1007.5 |
| 20260506070654 | 74 | 182 | 9.0 | 17.0 | 0.00 | 0.00 | 0.00 | 85 | 1007.5 |
| 20260506070556 | 74 | 209 | 9.0 | 17.0 | 0.00 | 0.00 | 0.00 | 85 | 1007.5 |
| 20260506070459 | 74 | 194 | 7.0 | 16.0 | 0.00 | 0.00 | 0.00 | 85 | 1007.5 |
| 20260506070403 | 74 | 221 | 6.0 | 17.0 | 0.00 | 0.00 | 0.00 | 85 | 1007.6 |
| 20260506070250 | 74 | 200 | 6.0 | 17.0 | 0.00 | 0.00 | 0.00 | 85 | 1007.6 |
| 20260506070214 | 74 | 176 | 7.0 | 20.0 | 0.00 | 0.00 | 0.00 | 85 | 1007.6 |
| 20260506062348 | 74 | 193 | 10.0 | 24.0 | 0.00 | 0.00 | 0.00 | 85 | 1007.5 |
| 20260506062311 | 74 | 205 | 9.0 | 21.0 | 0.00 | 0.00 | 0.00 | 85 | 1007.5 |
| 20260506062153 | 74 | 192 | 8.0 | 21.0 | 0.00 | 0.00 | 0.00 | 85 | 1007.4 |
| 20260506062102 | 74 | 204 | 8.0 | 21.0 | 0.00 | 0.00 | 0.00 | 85 | 1007.5 |
| 20260506062005 | 74 | 189 | 7.0 | 21.0 | 0.00 | 0.00 | 0.00 | 85 | 1007.4 |
| 20260506061849 | 74 | 171 | 8.0 | 21.0 | 0.00 | 0.00 | 0.00 | 85 | 1007.5 |
| 20260506061813 | 75 | 171 | 8.0 | 21.0 | 0.00 | 0.00 | 0.00 | 85 | 1007.5 |
| 20260506061649 | 74 | 163 | 7.0 | 15.0 | 0.00 | 0.00 | 0.00 | 85 | 1007.6 |
| 20260506061612 | 74 | 225 | 6.0 | 15.0 | 0.00 | 0.00 | 0.00 | 85 | 1007.6 |
| 20260506061455 | 74 | 219 | 5.0 | 23.0 | 0.00 | 0.00 | 0.00 | 85 | 1007.5 |
| 20260506061403 | 74 | 153 | 5.0 | 23.0 | 0.00 | 0.00 | 0.00 | 85 | 1007.5 |
| 20260506061249 | 74 | 182 | 5.0 | 23.0 | 0.00 | 0.00 | 0.00 | 85 | 1007.5 |
| 20260506061151 | 74 | 198 | 6.0 | 23.0 | 0.00 | 0.00 | 0.00 | 85 | 1007.5 |
| 20260506061055 | 74 | 210 | 8.0 | 23.0 | 0.00 | 0.00 | 0.00 | 85 | 1007.5 |
| 20260506060958 | 74 | 192 | 8.0 | 23.0 | 0.00 | 0.00 | 0.00 | 85 | 1007.4 |
| 20260506060902 | 75 | 205 | 7.0 | 23.0 | 0.00 | 0.00 | 0.00 | 85 | 1007.4 |
| 20260506060750 | 75 | 221 | 10.0 | 23.0 | 0.00 | 0.00 | 0.00 | 85 | 1007.4 |
| 20260506060714 | 75 | 190 | 11.0 | 23.0 | 0.00 | 0.00 | 0.00 | 85 | 1007.4 |
| 20260506060555 | 74 | 223 | 10.0 | 22.0 | 0.00 | 0.00 | 0.00 | 85 | 1007.4 |
| 20260506060457 | 75 | 189 | 9.0 | 16.0 | 0.00 | 0.00 | 0.00 | 85 | 1007.4 |
| 20260506060421 | 74 | 219 | 7.0 | 16.0 | 0.00 | 0.00 | 0.00 | 85 | 1007.4 |
| 20260506060323 | 75 | 211 | 6.0 | 14.0 | 0.00 | 0.00 | 0.00 | 85 | 1007.4 |
| 20260506060206 | 75 | 182 | 6.0 | 17.0 | 0.00 | 0.00 | 0.00 | 85 | 1007.3 |
| 20260506051410 | 75 | 187 | 5.0 | 15.0 | 0.00 | 0.00 | 0.00 | 84 | 1007.6 |
| 20260506051312 | 75 | 190 | 5.0 | 15.0 | 0.00 | 0.00 | 0.00 | 84 | 1007.6 |
| 20260506051155 | 75 | 155 | 7.0 | 15.0 | 0.00 | 0.00 | 0.00 | 84 | 1007.6 |
| 20260506051059 | 75 | 206 | 7.0 | 15.0 | 0.00 | 0.00 | 0.00 | 84 | 1007.6 |
| 20260506051002 | 75 | 194 | 7.0 | 15.0 | 0.00 | 0.00 | 0.00 | 84 | 1007.6 |
| 20260506050906 | 75 | 203 | 6.0 | 15.0 | 0.00 | 0.00 | 0.00 | 84 | 1007.6 |
| 20260506050753 | 75 | 215 | 6.0 | 15.0 | 0.00 | 0.00 | 0.00 | 84 | 1007.6 |
| 20260506050657 | 75 | 171 | 8.0 | 15.0 | 0.00 | 0.00 | 0.00 | 84 | 1007.6 |
| 20260506050559 | 75 | 167 | 8.0 | 22.0 | 0.00 | 0.00 | 0.00 | 84 | 1007.6 |
| 20260506050504 | 75 | 186 | 7.0 | 22.0 | 0.00 | 0.00 | 0.00 | 83 | 1007.5 |
| 20260506050409 | 75 | 163 | 8.0 | 22.0 | 0.00 | 0.00 | 0.00 | 83 | 1007.6 |
| 20260506050252 | 75 | 188 | 8.0 | 22.0 | 0.00 | 0.00 | 0.00 | 83 | 1007.6 |
| 20260506050157 | 75 | 189 | 7.0 | 22.0 | 0.00 | 0.00 | 0.00 | 83 | 1007.6 |
| 20260506045128 | 75 | 189 | 9.0 | 22.0 | 0.00 | 0.00 | 0.00 | 83 | 1007.6 |
| 20260506044950 | 75 | 189 | 7.0 | 22.0 | 0.00 | 0.00 | 0.00 | 83 | 1007.5 |
| 20260506044855 | 75 | 217 | 8.0 | 22.0 | 0.00 | 0.00 | 0.00 | 83 | 1007.5 |
| 20260506044818 | 75 | 180 | 8.0 | 22.0 | 0.00 | 0.00 | 0.00 | 83 | 1007.5 |
| 20260506044704 | 75 | 207 | 8.0 | 22.0 | 0.00 | 0.00 | 0.00 | 83 | 1007.5 |
| 20260506044548 | 75 | 182 | 7.0 | 22.0 | 0.00 | 0.00 | 0.00 | 83 | 1007.5 |
| 20260506044451 | 75 | 200 | 10.0 | 22.0 | 0.00 | 0.00 | 0.00 | 83 | 1007.5 |
| 20260506044355 | 75 | 180 | 11.0 | 22.0 | 0.00 | 0.00 | 0.00 | 83 | 1007.5 |
| 20260506044258 | 75 | 236 | 11.0 | 22.0 | 0.00 | 0.00 | 0.00 | 83 | 1007.5 |
| 20260506044202 | 75 | 180 | 12.0 | 22.0 | 0.00 | 0.00 | 0.00 | 83 | 1007.5 |
| 20260506044109 | 75 | 224 | 10.0 | 23.0 | 0.00 | 0.00 | 0.00 | 83 | 1007.5 |
| 20260506043952 | 75 | 172 | 10.0 | 19.0 | 0.00 | 0.00 | 0.00 | 83 | 1007.5 |
| 20260506043915 | 75 | 196 | 9.0 | 18.0 | 0.00 | 0.00 | 0.00 | 83 | 1007.5 |
| 20260506043758 | 75 | 183 | 9.0 | 18.0 | 0.00 | 0.00 | 0.00 | 83 | 1007.6 |
| 20260506043723 | 75 | 209 | 8.0 | 18.0 | 0.00 | 0.00 | 0.00 | 84 | 1007.6 |
| 20260506043625 | 75 | 215 | 10.0 | 18.0 | 0.00 | 0.00 | 0.00 | 83 | 1007.5 |
| 20260506043527 | 76 | 190 | 10.0 | 18.0 | 0.00 | 0.00 | 0.00 | 84 | 1007.6 |
| 20260506043350 | 75 | 164 | 6.0 | 16.0 | 0.00 | 0.00 | 0.00 | 84 | 1007.6 |
| 20260506043317 | 76 | 161 | 5.0 | 14.0 | 0.00 | 0.00 | 0.00 | 84 | 1007.6 |
| 20260506043200 | 76 | 203 | 7.0 | 14.0 | 0.00 | 0.00 | 0.00 | 84 | 1007.7 |
| 20260506043104 | 76 | 174 | 6.0 | 14.0 | 0.00 | 0.00 | 0.00 | 84 | 1007.7 |
| 20260506043007 | 76 | 163 | 6.0 | 14.0 | 0.00 | 0.00 | 0.00 | 84 | 1007.7 |
| 20260506042851 | 76 | 189 | 6.0 | 14.0 | 0.00 | 0.00 | 0.00 | 84 | 1007.7 |
| 20260506042754 | 76 | 159 | 6.0 | 14.0 | 0.00 | 0.00 | 0.00 | 84 | 1007.7 |
| 20260506042703 | 76 | 175 | 6.0 | 14.0 | 0.00 | 0.00 | 0.00 | 84 | 1007.7 |
| 20260506042606 | 76 | 160 | 7.0 | 14.0 | 0.00 | 0.00 | 0.00 | 84 | 1007.6 |
| 20260506042450 | 76 | 178 | 7.0 | 17.0 | 0.00 | 0.00 | 0.00 | 84 | 1007.6 |
| 20260506042413 | 76 | 184 | 7.0 | 17.0 | 0.00 | 0.00 | 0.00 | 84 | 1007.6 |
| 20260506042249 | 76 | 155 | 5.0 | 17.0 | 0.00 | 0.00 | 0.00 | 84 | 1007.6 |
| 20260506042153 | 76 | 195 | 6.0 | 17.0 | 0.00 | 0.00 | 0.00 | 84 | 1007.6 |
| 20260506042116 | 76 | 180 | 6.0 | 17.0 | 0.00 | 0.00 | 0.00 | 84 | 1007.5 |
| 20260506042003 | 76 | 181 | 7.0 | 17.0 | 0.00 | 0.00 | 0.00 | 84 | 1007.6 |
| 20260506041907 | 76 | 159 | 8.0 | 17.0 | 0.00 | 0.00 | 0.00 | 84 | 1007.6 |
| 20260506041751 | 76 | 192 | 8.0 | 17.0 | 0.00 | 0.00 | 0.00 | 84 | 1007.5 |
| 20260506041655 | 76 | 166 | 8.0 | 17.0 | 0.00 | 0.00 | 0.00 | 84 | 1007.5 |
| 20260506041556 | 76 | 173 | 8.0 | 19.0 | 0.00 | 0.00 | 0.00 | 84 | 1007.5 |
| 20260506041500 | 76 | 192 | 8.0 | 19.0 | 0.00 | 0.00 | 0.00 | 84 | 1007.5 |
| 20260506041407 | 76 | 185 | 8.0 | 19.0 | 0.00 | 0.00 | 0.00 | 84 | 1007.5 |
| 20260506041251 | 76 | 153 | 8.0 | 17.0 | 0.00 | 0.00 | 0.00 | 84 | 1007.5 |
| 20260506041154 | 76 | 162 | 7.0 | 14.0 | 0.00 | 0.00 | 0.00 | 84 | 1007.5 |
| 20260506041058 | 76 | 188 | 6.0 | 14.0 | 0.00 | 0.00 | 0.00 | 84 | 1007.5 |
| 20260506041000 | 76 | 169 | 6.0 | 16.0 | 0.00 | 0.00 | 0.00 | 84 | 1007.5 |
| 20260506040904 | 76 | 174 | 5.0 | 16.0 | 0.00 | 0.00 | 0.00 | 84 | 1007.5 |
| 20260506040827 | 76 | 167 | 4.0 | 16.0 | 0.00 | 0.00 | 0.00 | 84 | 1007.5 |
| 20260506040656 | 76 | 196 | 6.0 | 16.0 | 0.00 | 0.00 | 0.00 | 84 | 1007.5 |
| 20260506040618 | 76 | 201 | 6.0 | 16.0 | 0.00 | 0.00 | 0.00 | 84 | 1007.5 |
| 20260506040501 | 76 | 182 | 6.0 | 16.0 | 0.00 | 0.00 | 0.00 | 84 | 1007.5 |
| 20260506040405 | 76 | 149 | 5.0 | 16.0 | 0.00 | 0.00 | 0.00 | 84 | 1007.5 |
| 20260506040249 | 76 | 183 | 6.0 | 16.0 | 0.00 | 0.00 | 0.00 | 84 | 1007.5 |
| 20260506040152 | 76 | 192 | 7.0 | 16.0 | 0.00 | 0.00 | 0.00 | 84 | 1007.5 |
| 20260506040055 | 76 | 150 | 7.0 | 15.0 | 0.00 | 0.00 | 0.00 | 84 | 1007.5 |
| 20260506040024 | 76 | 158 | 6.0 | 15.0 | 0.00 | 0.00 | 0.00 | 83 | 1007.5 |
| 20260506035905 | 76 | 188 | 7.0 | 15.0 | 0.00 | 0.00 | 0.00 | 83 | 1007.4 |
| 20260506035749 | 76 | 155 | 9.0 | 15.0 | 0.00 | 0.00 | 0.00 | 83 | 1007.4 |
| 20260506035651 | 76 | 165 | 8.0 | 15.0 | 0.00 | 0.00 | 0.00 | 83 | 1007.4 |
| 20260506035555 | 76 | 151 | 6.0 | 14.0 | 0.00 | 0.00 | 0.00 | 83 | 1007.4 |
| 20260506035458 | 76 | 146 | 5.0 | 12.0 | 0.00 | 0.00 | 0.00 | 83 | 1007.3 |
| 20260506035403 | 76 | 165 | 6.0 | 12.0 | 0.00 | 0.00 | 0.00 | 83 | 1007.4 |
| 20260506035250 | 76 | 166 | 6.0 | 12.0 | 0.00 | 0.00 | 0.00 | 83 | 1007.3 |
| 20260506035213 | 76 | 175 | 6.0 | 12.0 | 0.00 | 0.00 | 0.00 | 83 | 1007.3 |
| 20260506035049 | 76 | 160 | 6.0 | 14.0 | 0.00 | 0.00 | 0.00 | 83 | 1007.3 |
| 20260506035013 | 76 | 151 | 5.0 | 14.0 | 0.00 | 0.00 | 0.00 | 83 | 1007.3 |
| 20260506034916 | 76 | 165 | 5.0 | 14.0 | 0.00 | 0.00 | 0.00 | 83 | 1007.3 |
| 20260506034758 | 76 | 156 | 5.0 | 14.0 | 0.00 | 0.00 | 0.00 | 83 | 1007.3 |
| 20260506034702 | 76 | 152 | 5.0 | 14.0 | 0.00 | 0.00 | 0.00 | 83 | 1007.1 |
| 20260506034550 | 76 | 142 | 7.0 | 14.0 | 0.00 | 0.00 | 0.00 | 83 | 1007.2 |
| 20260506034513 | 76 | 130 | 7.0 | 13.0 | 0.00 | 0.00 | 0.00 | 83 | 1007.2 |
| 20260506034416 | 76 | 148 | 8.0 | 13.0 | 0.00 | 0.00 | 0.00 | 83 | 1007.2 |
| 20260506034259 | 76 | 171 | 7.0 | 13.0 | 0.00 | 0.00 | 0.00 | 83 | 1007.3 |
| 20260506034203 | 76 | 142 | 6.0 | 13.0 | 0.00 | 0.00 | 0.00 | 83 | 1007.2 |
| 20260506034126 | 76 | 157 | 6.0 | 13.0 | 0.00 | 0.00 | 0.00 | 83 | 1007.1 |
| 20260506033949 | 76 | 178 | 6.0 | 13.0 | 0.00 | 0.00 | 0.00 | 83 | 1007.1 |
| 20260506033857 | 76 | 154 | 7.0 | 13.0 | 0.00 | 0.00 | 0.00 | 83 | 1007.1 |
| 20260506033820 | 76 | 186 | 7.0 | 13.0 | 0.00 | 0.00 | 0.00 | 83 | 1007.1 |
| 20260506033705 | 76 | 173 | 7.0 | 13.0 | 0.00 | 0.00 | 0.00 | 83 | 1007.0 |
| 20260506033607 | 76 | 151 | 5.0 | 12.0 | 0.00 | 0.00 | 0.00 | 83 | 1007.1 |
| 20260506033451 | 76 | 151 | 5.0 | 12.0 | 0.00 | 0.00 | 0.00 | 83 | 1007.0 |
| 20260506033355 | 76 | 165 | 6.0 | 12.0 | 0.00 | 0.00 | 0.00 | 83 | 1007.0 |
| 20260506033303 | 76 | 150 | 6.0 | 13.0 | 0.00 | 0.00 | 0.00 | 83 | 1007.1 |
| 20260506033206 | 76 | 163 | 6.0 | 13.0 | 0.00 | 0.00 | 0.00 | 83 | 1007.0 |
| 20260506033110 | 76 | 148 | 6.0 | 13.0 | 0.00 | 0.00 | 0.00 | 83 | 1007.0 |
| 20260506032953 | 76 | 162 | 5.0 | 13.0 | 0.00 | 0.00 | 0.00 | 83 | 1007.0 |
| 20260506032856 | 76 | 135 | 4.0 | 13.0 | 0.00 | 0.00 | 0.00 | 83 | 1007.0 |
| 20260506032800 | 76 | 171 | 7.0 | 13.0 | 0.00 | 0.00 | 0.00 | 83 | 1006.9 |
| 20260506032703 | 76 | 146 | 7.0 | 13.0 | 0.00 | 0.00 | 0.00 | 83 | 1006.9 |
| 20260506032630 | 76 | 158 | 7.0 | 13.0 | 0.00 | 0.00 | 0.00 | 83 | 1006.9 |
| 20260506032534 | 76 | 175 | 6.0 | 13.0 | 0.00 | 0.00 | 0.00 | 83 | 1006.8 |
| 20260506032349 | 76 | 189 | 5.0 | 14.0 | 0.00 | 0.00 | 0.00 | 83 | 1006.9 |
| 20260506032312 | 76 | 150 | 5.0 | 14.0 | 0.00 | 0.00 | 0.00 | 83 | 1006.9 |
| 20260506032236 | 76 | 184 | 5.0 | 14.0 | 0.00 | 0.00 | 0.00 | 83 | 1006.9 |
| 20260506032051 | 76 | 162 | 5.0 | 14.0 | 0.00 | 0.00 | 0.00 | 83 | 1006.9 |
| 20260506031954 | 76 | 167 | 5.0 | 14.0 | 0.00 | 0.00 | 0.00 | 83 | 1006.9 |
| 20260506031903 | 76 | 166 | 6.0 | 11.0 | 0.00 | 0.00 | 0.00 | 83 | 1006.8 |
| 20260506031805 | 76 | 138 | 6.0 | 11.0 | 0.00 | 0.00 | 0.00 | 82 | 1006.8 |
| 20260506031650 | 76 | 144 | 7.0 | 11.0 | 0.00 | 0.00 | 0.00 | 82 | 1006.7 |
| 20260506031554 | 76 | 159 | 6.0 | 11.0 | 0.00 | 0.00 | 0.00 | 82 | 1006.7 |
| 20260506031457 | 76 | 153 | 5.0 | 11.0 | 0.00 | 0.00 | 0.00 | 82 | 1006.8 |
| 20260506031421 | 76 | 168 | 5.0 | 11.0 | 0.00 | 0.00 | 0.00 | 82 | 1006.8 |
| 20260506031303 | 76 | 149 | 5.0 | 11.0 | 0.00 | 0.00 | 0.00 | 82 | 1006.7 |
| 20260506031151 | 76 | 178 | 5.0 | 11.0 | 0.00 | 0.00 | 0.00 | 82 | 1006.7 |
| 20260506031054 | 76 | 175 | 4.0 | 11.0 | 0.00 | 0.00 | 0.00 | 82 | 1006.7 |
| 20260506030958 | 76 | 162 | 5.0 | 11.0 | 0.00 | 0.00 | 0.00 | 82 | 1006.7 |
| 20260506030922 | 76 | 141 | 4.0 | 11.0 | 0.00 | 0.00 | 0.00 | 82 | 1006.8 |
| 20260506030805 | 76 | 155 | 6.0 | 11.0 | 0.00 | 0.00 | 0.00 | 82 | 1006.7 |
| 20260506030649 | 76 | 141 | 7.0 | 11.0 | 0.00 | 0.00 | 0.00 | 82 | 1006.6 |
| 20260506030555 | 76 | 182 | 6.0 | 11.0 | 0.00 | 0.00 | 0.00 | 82 | 1006.6 |
| 20260506030459 | 76 | 161 | 5.0 | 12.0 | 0.00 | 0.00 | 0.00 | 82 | 1006.6 |
| 20260506030401 | 76 | 146 | 5.0 | 11.0 | 0.00 | 0.00 | 0.00 | 82 | 1006.5 |
| 20260506030305 | 76 | 166 | 5.0 | 11.0 | 0.00 | 0.00 | 0.00 | 82 | 1006.5 |
| 20260506030228 | 76 | 152 | 5.0 | 11.0 | 0.00 | 0.00 | 0.00 | 82 | 1006.5 |
| 20260506030110 | 76 | 147 | 5.0 | 11.0 | 0.00 | 0.00 | 0.00 | 82 | 1006.5 |
| 20260506030034 | 76 | 167 | 5.0 | 11.0 | 0.00 | 0.00 | 0.00 | 82 | 1006.5 |
| 20260506025849 | 76 | 152 | 4.0 | 11.0 | 0.00 | 0.00 | 0.00 | 81 | 1006.6 |
| 20260506025757 | 76 | 162 | 4.0 | 11.0 | 0.00 | 0.00 | 0.00 | 81 | 1006.6 |
| 20260506025701 | 76 | 157 | 5.0 | 11.0 | 0.00 | 0.00 | 0.00 | 81 | 1006.6 |
| 20260506025604 | 76 | 157 | 4.0 | 11.0 | 0.00 | 0.00 | 0.00 | 81 | 1006.5 |
| 20260506025507 | 76 | 143 | 3.0 | 9.0 | 0.00 | 0.00 | 0.00 | 81 | 1006.6 |
| 20260506025350 | 76 | 165 | 4.0 | 9.0 | 0.00 | 0.00 | 0.00 | 81 | 1006.6 |
| 20260506025313 | 76 | 156 | 5.0 | 10.0 | 0.00 | 0.00 | 0.00 | 81 | 1006.6 |
| 20260506025155 | 76 | 157 | 4.0 | 9.0 | 0.00 | 0.00 | 0.00 | 81 | 1006.5 |
| 20260506025122 | 77 | 144 | 4.0 | 9.0 | 0.00 | 0.00 | 0.00 | 81 | 1006.7 |
| 20260506025004 | 77 | 146 | 5.0 | 9.0 | 0.00 | 0.00 | 0.00 | 81 | 1006.5 |
| 20260506024848 | 77 | 175 | 4.0 | 11.0 | 0.00 | 0.00 | 0.00 | 81 | 1006.4 |
| 20260506024752 | 77 | 150 | 4.0 | 11.0 | 0.00 | 0.00 | 0.00 | 80 | 1006.4 |
| 20260506024656 | 77 | 168 | 4.0 | 11.0 | 0.00 | 0.00 | 0.00 | 80 | 1006.4 |
| 20260506024559 | 77 | 144 | 4.0 | 11.0 | 0.00 | 0.00 | 0.00 | 80 | 1006.4 |
| 20260506024504 | 77 | 150 | 5.0 | 11.0 | 0.00 | 0.00 | 0.00 | 80 | 1006.4 |
| 20260506024351 | 77 | 180 | 4.0 | 11.0 | 0.00 | 0.00 | 0.00 | 80 | 1006.3 |
| 20260506024254 | 77 | 153 | 5.0 | 11.0 | 0.00 | 0.00 | 0.00 | 80 | 1006.3 |
| 20260506024157 | 77 | 172 | 5.0 | 11.0 | 0.00 | 0.00 | 0.00 | 80 | 1006.4 |
| 20260506024101 | 77 | 168 | 5.0 | 11.0 | 0.00 | 0.00 | 0.00 | 80 | 1006.4 |
| 20260506024004 | 77 | 168 | 5.0 | 12.0 | 0.00 | 0.00 | 0.00 | 80 | 1006.3 |
| 20260506023853 | 77 | 141 | 5.0 | 11.0 | 0.00 | 0.00 | 0.00 | 79 | 1006.2 |
| 20260506023756 | 77 | 157 | 5.0 | 11.0 | 0.00 | 0.00 | 0.00 | 79 | 1006.2 |
| 20260506023701 | 77 | 173 | 5.0 | 11.0 | 0.00 | 0.00 | 0.00 | 79 | 1006.3 |
| 20260506023603 | 77 | 172 | 4.0 | 11.0 | 0.00 | 0.00 | 0.00 | 79 | 1006.2 |
| 20260506023506 | 77 | 176 | 5.0 | 11.0 | 0.00 | 0.00 | 0.00 | 79 | 1006.2 |
| 20260506023350 | 77 | 150 | 5.0 | 12.0 | 0.00 | 0.00 | 0.00 | 79 | 1006.2 |
| 20260506023314 | 77 | 160 | 5.0 | 12.0 | 0.00 | 0.00 | 0.00 | 79 | 1006.2 |
| 20260506023220 | 77 | 163 | 5.0 | 12.0 | 0.00 | 0.00 | 0.00 | 79 | 1006.2 |
| 20260506023123 | 77 | 172 | 5.0 | 12.0 | 0.00 | 0.00 | 0.00 | 79 | 1006.2 |
| 20260506023005 | 77 | 158 | 4.0 | 12.0 | 0.00 | 0.00 | 0.00 | 79 | 1006.2 |
| 20260506022848 | 77 | 185 | 5.0 | 12.0 | 0.00 | 0.00 | 0.00 | 79 | 1006.1 |
| 20260506022751 | 77 | 149 | 5.0 | 12.0 | 0.00 | 0.00 | 0.00 | 79 | 1006.0 |
| 20260506022655 | 77 | 171 | 4.0 | 12.0 | 0.00 | 0.00 | 0.00 | 78 | 1006.0 |
| 20260506022620 | 77 | 158 | 5.0 | 12.0 | 0.00 | 0.00 | 0.00 | 78 | 1006.1 |
| 20260506022522 | 77 | 158 | 6.0 | 12.0 | 0.00 | 0.00 | 0.00 | 78 | 1006.1 |
| 20260506022349 | 77 | 182 | 4.0 | 13.0 | 0.00 | 0.00 | 0.00 | 78 | 1006.0 |
| 20260506022251 | 77 | 156 | 4.0 | 11.0 | 0.00 | 0.00 | 0.00 | 78 | 1006.0 |
| 20260506022155 | 77 | 148 | 5.0 | 11.0 | 0.00 | 0.00 | 0.00 | 78 | 1006.0 |
| 20260506022058 | 77 | 153 | 5.0 | 11.0 | 0.00 | 0.00 | 0.00 | 78 | 1006.0 |
| 20260506022022 | 77 | 152 | 5.0 | 11.0 | 0.00 | 0.00 | 0.00 | 78 | 1006.0 |
| 20260506021904 | 77 | 197 | 5.0 | 13.0 | 0.00 | 0.00 | 0.00 | 78 | 1005.9 |
| 20260506021752 | 78 | 165 | 5.0 | 11.0 | 0.00 | 0.00 | 0.00 | 78 | 1005.9 |
| 20260506021655 | 77 | 167 | 5.0 | 11.0 | 0.00 | 0.00 | 0.00 | 78 | 1005.9 |
| 20260506021559 | 78 | 190 | 4.0 | 11.0 | 0.00 | 0.00 | 0.00 | 78 | 1005.9 |
| 20260506021503 | 78 | 146 | 4.0 | 11.0 | 0.00 | 0.00 | 0.00 | 78 | 1005.8 |
| 20260506021406 | 78 | 190 | 5.0 | 11.0 | 0.00 | 0.00 | 0.00 | 78 | 1005.8 |
| 20260506021310 | 78 | 153 | 5.0 | 11.0 | 0.00 | 0.00 | 0.00 | 78 | 1005.7 |
| 20260506021212 | 78 | 157 | 5.0 | 11.0 | 0.00 | 0.00 | 0.00 | 78 | 1005.7 |
| 20260506021100 | 78 | 155 | 5.0 | 11.0 | 0.00 | 0.00 | 0.00 | 78 | 1005.7 |
| 20260506021003 | 78 | 162 | 4.0 | 11.0 | 0.00 | 0.00 | 0.00 | 77 | 1005.7 |
| 20260506020906 | 78 | 158 | 4.0 | 10.0 | 0.00 | 0.00 | 0.00 | 77 | 1005.7 |
| 20260506020811 | 78 | 150 | 4.0 | 10.0 | 0.00 | 0.00 | 0.00 | 77 | 1005.7 |
| 20260506020652 | 78 | 157 | 4.0 | 10.0 | 0.00 | 0.00 | 0.00 | 77 | 1005.7 |
| 20260506020555 | 78 | 161 | 4.0 | 10.0 | 0.00 | 0.00 | 0.00 | 77 | 1005.7 |
| 20260506020502 | 78 | 147 | 4.0 | 10.0 | 0.00 | 0.00 | 0.00 | 77 | 1005.6 |
| 20260506020405 | 78 | 149 | 5.0 | 10.0 | 0.00 | 0.00 | 0.00 | 77 | 1005.6 |
| 20260506020329 | 78 | 171 | 5.0 | 10.0 | 0.00 | 0.00 | 0.00 | 77 | 1005.7 |
| 20260506020152 | 78 | 159 | 5.0 | 10.0 | 0.00 | 0.00 | 0.00 | 77 | 1005.6 |
| 20260506020054 | 78 | 156 | 6.0 | 10.0 | 0.00 | 0.00 | 0.00 | 77 | 1005.6 |
| 20260506015959 | 78 | 155 | 5.0 | 10.0 | 0.00 | 0.00 | 0.00 | 77 | 1005.6 |
| 20260506015922 | 78 | 133 | 4.0 | 10.0 | 0.00 | 0.00 | 0.00 | 77 | 1005.5 |
| 20260506015825 | 78 | 156 | 4.0 | 10.0 | 0.00 | 0.00 | 0.00 | 77 | 1005.6 |
| 20260506015650 | 78 | 169 | 4.0 | 11.0 | 0.00 | 0.00 | 0.00 | 77 | 1005.6 |
| 20260506015554 | 78 | 159 | 5.0 | 11.0 | 0.00 | 0.00 | 0.00 | 76 | 1005.6 |
| 20260506015458 | 78 | 148 | 5.0 | 11.0 | 0.00 | 0.00 | 0.00 | 76 | 1005.6 |
| 20260506015401 | 78 | 158 | 5.0 | 11.0 | 0.00 | 0.00 | 0.00 | 76 | 1005.5 |
| 20260506015306 | 78 | 174 | 4.0 | 11.0 | 0.00 | 0.00 | 0.00 | 76 | 1005.6 |
| 20260506015152 | 78 | 151 | 5.0 | 11.0 | 0.00 | 0.00 | 0.00 | 76 | 1005.6 |
| 20260506015056 | 78 | 155 | 6.0 | 11.0 | 0.00 | 0.00 | 0.00 | 76 | 1005.5 |
| 20260506014959 | 79 | 148 | 5.0 | 11.0 | 0.00 | 0.00 | 0.00 | 76 | 1005.5 |
| 20260506014903 | 78 | 155 | 4.0 | 11.0 | 0.00 | 0.00 | 0.00 | 76 | 1005.5 |
| 20260506014806 | 78 | 150 | 4.0 | 11.0 | 0.00 | 0.00 | 0.00 | 76 | 1005.5 |
| 20260506014650 | 79 | 147 | 3.0 | 9.0 | 0.00 | 0.00 | 0.00 | 76 | 1005.5 |
| 20260506014615 | 79 | 139 | 3.0 | 8.0 | 0.00 | 0.00 | 0.00 | 76 | 1005.5 |
| 20260506014502 | 79 | 178 | 4.0 | 8.0 | 0.00 | 0.00 | 0.00 | 76 | 1005.5 |
| 20260506014426 | 79 | 141 | 4.0 | 9.0 | 0.00 | 0.00 | 0.00 | 76 | 1005.4 |
| 20260506014248 | 79 | 154 | 4.0 | 9.0 | 0.00 | 0.00 | 0.00 | 76 | 1005.4 |
| 20260506014211 | 79 | 169 | 3.0 | 9.0 | 0.00 | 0.00 | 0.00 | 76 | 1005.4 |
| 20260506014054 | 79 | 144 | 3.0 | 9.0 | 0.00 | 0.00 | 0.00 | 76 | 1005.4 |
| 20260506013957 | 79 | 144 | 3.0 | 9.0 | 0.00 | 0.00 | 0.00 | 76 | 1005.3 |
| 20260506013901 | 79 | 156 | 3.0 | 9.0 | 0.00 | 0.00 | 0.00 | 76 | 1005.4 |
| 20260506013749 | 79 | 150 | 4.0 | 9.0 | 0.00 | 0.00 | 0.00 | 76 | 1005.4 |
| 20260506013651 | 79 | 159 | 4.0 | 9.0 | 0.00 | 0.00 | 0.00 | 75 | 1005.3 |
| 20260506013553 | 79 | 159 | 4.0 | 8.0 | 0.00 | 0.00 | 0.00 | 75 | 1005.3 |
| 20260506013458 | 79 | 149 | 4.0 | 8.0 | 0.00 | 0.00 | 0.00 | 75 | 1005.4 |
| 20260506013401 | 79 | 141 | 4.0 | 8.0 | 0.00 | 0.00 | 0.00 | 75 | 1005.3 |
| 20260506013249 | 79 | 155 | 4.0 | 8.0 | 0.00 | 0.00 | 0.00 | 75 | 1005.4 |
| 20260506013213 | 79 | 148 | 4.0 | 8.0 | 0.00 | 0.00 | 0.00 | 75 | 1005.4 |
| 20260506013049 | 79 | 131 | 3.0 | 7.0 | 0.00 | 0.00 | 0.00 | 75 | 1005.3 |
| 20260506013014 | 79 | 146 | 3.0 | 8.0 | 0.00 | 0.00 | 0.00 | 75 | 1005.3 |
| 20260506012855 | 79 | 150 | 3.0 | 8.0 | 0.00 | 0.00 | 0.00 | 75 | 1005.3 |
| 20260506012800 | 79 | 144 | 3.0 | 8.0 | 0.00 | 0.00 | 0.00 | 75 | 1005.3 |
| 20260506012704 | 79 | 150 | 2.0 | 8.0 | 0.00 | 0.00 | 0.00 | 75 | 1005.3 |
| 20260506012552 | 79 | 150 | 3.0 | 8.0 | 0.00 | 0.00 | 0.00 | 75 | 1005.3 |
| 20260506012455 | 79 | 149 | 3.0 | 8.0 | 0.00 | 0.00 | 0.00 | 75 | 1005.3 |
| 20260506012359 | 79 | 158 | 2.0 | 8.0 | 0.00 | 0.00 | 0.00 | 75 | 1005.3 |
| 20260506012307 | 79 | 143 | 3.0 | 8.0 | 0.00 | 0.00 | 0.00 | 75 | 1005.3 |
| 20260506012206 | 79 | 148 | 3.0 | 8.0 | 0.00 | 0.00 | 0.00 | 75 | 1005.3 |
| 20260506012050 | 79 | 157 | 3.0 | 8.0 | 0.00 | 0.00 | 0.00 | 75 | 1005.4 |
| 20260506012018 | 80 | 160 | 3.0 | 8.0 | 0.00 | 0.00 | 0.00 | 75 | 1005.4 |
| 20260506011901 | 79 | 164 | 4.0 | 8.0 | 0.00 | 0.00 | 0.00 | 75 | 1005.4 |
| 20260506011804 | 80 | 146 | 4.0 | 8.0 | 0.00 | 0.00 | 0.00 | 75 | 1005.5 |
| 20260506011647 | 80 | 155 | 3.0 | 8.0 | 0.00 | 0.00 | 0.00 | 74 | 1005.6 |
| 20260506011552 | 80 | 149 | 4.0 | 8.0 | 0.00 | 0.00 | 0.00 | 74 | 1005.6 |
| 20260506011456 | 80 | 144 | 4.0 | 7.0 | 0.00 | 0.00 | 0.00 | 74 | 1005.5 |
| 20260506011403 | 80 | 151 | 4.0 | 7.0 | 0.00 | 0.00 | 0.00 | 74 | 1005.6 |
| 20260506011248 | 80 | 161 | 3.0 | 7.0 | 0.00 | 0.00 | 0.00 | 74 | 1005.7 |
| 20260506011153 | 80 | 155 | 4.0 | 7.0 | 0.00 | 0.00 | 0.00 | 74 | 1005.7 |
| 20260506011057 | 80 | 137 | 4.0 | 7.0 | 0.00 | 0.00 | 0.00 | 74 | 1005.7 |
| 20260506011000 | 80 | 167 | 4.0 | 7.0 | 0.00 | 0.00 | 0.00 | 74 | 1005.7 |
| 20260506010904 | 80 | 151 | 5.0 | 7.0 | 0.00 | 0.00 | 0.00 | 73 | 1005.8 |
| 20260506010752 | 80 | 163 | 5.0 | 7.0 | 0.00 | 0.00 | 0.00 | 73 | 1005.7 |
| 20260506010655 | 80 | 154 | 4.0 | 7.0 | 0.00 | 0.00 | 0.00 | 73 | 1005.7 |
| 20260506010558 | 80 | 164 | 3.0 | 7.0 | 0.00 | 0.00 | 0.00 | 73 | 1005.7 |
| 20260506010521 | 80 | 147 | 3.0 | 7.0 | 0.00 | 0.00 | 0.00 | 73 | 1005.6 |
| 20260506010404 | 80 | 167 | 3.0 | 7.0 | 0.00 | 0.00 | 0.00 | 73 | 1005.6 |
| 20260506010328 | 80 | 161 | 3.0 | 7.0 | 0.00 | 0.00 | 0.00 | 73 | 1005.6 |
| 20260506010150 | 80 | 180 | 4.0 | 7.0 | 0.00 | 0.00 | 0.00 | 73 | 1005.5 |
| 20260506010058 | 80 | 178 | 4.0 | 7.0 | 0.00 | 0.00 | 0.00 | 73 | 1005.5 |
| 20260506010021 | 80 | 158 | 3.0 | 7.0 | 0.00 | 0.00 | 0.00 | 73 | 1005.5 |
| 20260506005904 | 80 | 171 | 4.0 | 7.0 | 0.00 | 0.00 | 0.00 | 73 | 1005.4 |
| 20260506005748 | 80 | 146 | 3.0 | 7.0 | 0.00 | 0.00 | 0.00 | 73 | 1005.5 |
| 20260506005651 | 81 | 186 | 4.0 | 7.0 | 0.00 | 0.00 | 0.00 | 73 | 1005.6 |
| 20260506005555 | 81 | 157 | 4.0 | 7.0 | 0.00 | 0.00 | 0.00 | 72 | 1005.6 |
| 20260506005503 | 81 | 160 | 4.0 | 7.0 | 0.00 | 0.00 | 0.00 | 72 | 1005.5 |
| 20260506005406 | 81 | 153 | 3.0 | 7.0 | 0.00 | 0.00 | 0.00 | 72 | 1005.5 |
| 20260506005310 | 81 | 161 | 3.0 | 7.0 | 0.00 | 0.00 | 0.00 | 72 | 1005.5 |
| 20260506005152 | 81 | 159 | 3.0 | 7.0 | 0.00 | 0.00 | 0.00 | 72 | 1005.5 |
| 20260506005116 | 81 | 186 | 3.0 | 7.0 | 0.00 | 0.00 | 0.00 | 72 | 1005.5 |
| 20260506004957 | 81 | 175 | 3.0 | 7.0 | 0.00 | 0.00 | 0.00 | 72 | 1005.6 |
| 20260506004922 | 81 | 178 | 3.0 | 7.0 | 0.00 | 0.00 | 0.00 | 72 | 1005.6 |
| 20260506004804 | 81 | 141 | 2.0 | 7.0 | 0.00 | 0.00 | 0.00 | 72 | 1005.6 |
| 20260506004711 | 81 | 150 | 2.0 | 6.0 | 0.00 | 0.00 | 0.00 | 72 | 1005.5 |
| 20260506004636 | 81 | 152 | 2.0 | 6.0 | 0.00 | 0.00 | 0.00 | 72 | 1005.5 |
| 20260506004450 | 81 | 184 | 1.0 | 4.0 | 0.00 | 0.00 | 0.00 | 72 | 1005.5 |
| 20260506004414 | 81 | 184 | 0.0 | 7.0 | 0.00 | 0.00 | 0.00 | 72 | 1005.5 |
| 20260506004250 | 81 | 184 | 1.0 | 7.0 | 0.00 | 0.00 | 0.00 | 72 | 1005.4 |
| 20260506004154 | 81 | 184 | 2.0 | 7.0 | 0.00 | 0.00 | 0.00 | 72 | 1005.4 |
| 20260506004101 | 81 | 185 | 2.0 | 7.0 | 0.00 | 0.00 | 0.00 | 72 | 1005.5 |
| 20260506004005 | 81 | 185 | 2.0 | 7.0 | 0.00 | 0.00 | 0.00 | 72 | 1005.5 |
| 20260506003848 | 81 | 186 | 2.0 | 7.0 | 0.00 | 0.00 | 0.00 | 72 | 1005.4 |
| 20260506003752 | 81 | 186 | 3.0 | 7.0 | 0.00 | 0.00 | 0.00 | 72 | 1005.4 |
| 20260506003717 | 81 | 186 | 3.0 | 7.0 | 0.00 | 0.00 | 0.00 | 72 | 1005.4 |
| 20260506003558 | 81 | 187 | 3.0 | 8.0 | 0.00 | 0.00 | 0.00 | 72 | 1005.4 |
| 20260506003502 | 81 | 186 | 2.0 | 8.0 | 0.00 | 0.00 | 0.00 | 72 | 1005.3 |
| 20260506003349 | 81 | 186 | 4.0 | 8.0 | 0.00 | 0.00 | 0.00 | 72 | 1005.3 |
| 20260506003253 | 81 | 195 | 4.0 | 8.0 | 0.00 | 0.00 | 0.00 | 72 | 1005.3 |
| 20260506003156 | 81 | 184 | 4.0 | 8.0 | 0.00 | 0.00 | 0.00 | 72 | 1005.4 |
| 20260506003100 | 81 | 175 | 4.0 | 8.0 | 0.00 | 0.00 | 0.00 | 72 | 1005.3 |
| 20260506003004 | 81 | 184 | 4.0 | 8.0 | 0.00 | 0.00 | 0.00 | 71 | 1005.3 |
| 20260506002928 | 81 | 173 | 4.0 | 8.0 | 0.00 | 0.00 | 0.00 | 71 | 1005.2 |
| 20260506002753 | 81 | 194 | 5.0 | 8.0 | 0.00 | 0.00 | 0.00 | 71 | 1005.3 |
| 20260506002717 | 81 | 191 | 5.0 | 8.0 | 0.00 | 0.00 | 0.00 | 71 | 1005.3 |
| 20260506002619 | 81 | 178 | 4.0 | 8.0 | 0.00 | 0.00 | 0.00 | 71 | 1005.2 |
| 20260506002502 | 81 | 172 | 4.0 | 9.0 | 0.00 | 0.00 | 0.00 | 71 | 1005.3 |
| 20260506002405 | 81 | 180 | 4.0 | 8.0 | 0.00 | 0.00 | 0.00 | 71 | 1005.4 |
| 20260506002248 | 81 | 174 | 4.0 | 8.0 | 0.00 | 0.00 | 0.00 | 71 | 1005.4 |
| 20260506002152 | 81 | 174 | 2.0 | 8.0 | 0.00 | 0.00 | 0.00 | 71 | 1005.4 |
| 20260506002059 | 81 | 175 | 1.0 | 8.0 | 0.00 | 0.00 | 0.00 | 71 | 1005.4 |
| 20260506002024 | 81 | 180 | 2.0 | 8.0 | 0.00 | 0.00 | 0.00 | 71 | 1005.3 |
| 20260506001906 | 81 | 182 | 3.0 | 8.0 | 0.00 | 0.00 | 0.00 | 71 | 1005.4 |
| 20260506001810 | 81 | 182 | 4.0 | 8.0 | 0.00 | 0.00 | 0.00 | 70 | 1005.3 |
| 20260506001652 | 81 | 166 | 4.0 | 8.0 | 0.00 | 0.00 | 0.00 | 70 | 1005.3 |
| 20260506001556 | 81 | 191 | 4.0 | 9.0 | 0.00 | 0.00 | 0.00 | 70 | 1005.3 |
| 20260506001459 | 81 | 167 | 4.0 | 12.0 | 0.00 | 0.00 | 0.00 | 70 | 1005.3 |
| 20260506001407 | 81 | 171 | 4.0 | 12.0 | 0.00 | 0.00 | 0.00 | 70 | 1005.3 |
| 20260506001250 | 81 | 141 | 4.0 | 12.0 | 0.00 | 0.00 | 0.00 | 71 | 1005.3 |
| 20260506001154 | 81 | 168 | 3.0 | 12.0 | 0.00 | 0.00 | 0.00 | 70 | 1005.3 |
| 20260506001057 | 81 | 177 | 4.0 | 12.0 | 0.00 | 0.00 | 0.00 | 71 | 1005.3 |
| 20260506001001 | 81 | 187 | 4.0 | 12.0 | 0.00 | 0.00 | 0.00 | 71 | 1005.3 |
| 20260506000924 | 81 | 190 | 5.0 | 12.0 | 0.00 | 0.00 | 0.00 | 70 | 1005.3 |
| 20260506000751 | 81 | 193 | 6.0 | 12.0 | 0.00 | 0.00 | 0.00 | 70 | 1005.3 |
| 20260506000656 | 81 | 215 | 6.0 | 12.0 | 0.00 | 0.00 | 0.00 | 70 | 1005.3 |
| 20260506000558 | 81 | 186 | 6.0 | 10.0 | 0.00 | 0.00 | 0.00 | 70 | 1005.2 |
| 20260506000501 | 81 | 197 | 5.0 | 10.0 | 0.00 | 0.00 | 0.00 | 70 | 1005.1 |
| 20260506000405 | 81 | 217 | 5.0 | 10.0 | 0.00 | 0.00 | 0.00 | 70 | 1005.1 |
| 20260506000249 | 81 | 209 | 6.0 | 10.0 | 0.00 | 0.00 | 0.00 | 70 | 1005.1 |
| 20260506000157 | 81 | 193 | 4.0 | 11.0 | 0.00 | 0.00 | 0.00 | 70 | 1005.1 |
| 20260506000100 | 82 | 180 | 3.0 | 8.0 | 0.00 | 0.00 | 0.00 | 71 | 1005.1 |
| 20260506000003 | 82 | 193 | 3.0 | 10.0 | 0.00 | 0.00 | 0.00 | 71 | 1005.1 |
| 20260505235907 | 82 | 180 | 3.0 | 10.0 | 0.00 | 0.00 | 0.00 | 71 | 1005.2 |
| 20260505235810 | 81 | 142 | 3.0 | 10.0 | 0.00 | 0.00 | 0.00 | 71 | 1005.2 |
| 20260505235653 | 81 | 165 | 4.0 | 10.0 | 0.00 | 0.00 | 0.00 | 70 | 1005.2 |
| 20260505235600 | 81 | 181 | 4.0 | 10.0 | 0.00 | 0.00 | 0.00 | 70 | 1005.1 |
| 20260505235524 | 82 | 171 | 4.0 | 10.0 | 0.00 | 0.00 | 0.00 | 70 | 1005.1 |
| 20260505235406 | 82 | 149 | 4.0 | 10.0 | 0.00 | 0.00 | 0.00 | 70 | 1005.1 |
| 20260505235250 | 81 | 171 | 5.0 | 10.0 | 0.00 | 0.00 | 0.00 | 70 | 1005.0 |
| 20260505235154 | 82 | 190 | 5.0 | 10.0 | 0.00 | 0.00 | 0.00 | 70 | 1005.0 |
| 20260505235057 | 81 | 174 | 5.0 | 10.0 | 0.00 | 0.00 | 0.00 | 70 | 1005.0 |
| 20260505235001 | 82 | 178 | 5.0 | 10.0 | 0.00 | 0.00 | 0.00 | 70 | 1005.0 |
| 20260505234849 | 82 | 183 | 5.0 | 10.0 | 0.00 | 0.00 | 0.00 | 70 | 1004.9 |
| 20260505234812 | 82 | 190 | 4.0 | 10.0 | 0.00 | 0.00 | 0.00 | 70 | 1005.0 |
| 20260505234714 | 82 | 170 | 5.0 | 11.0 | 0.00 | 0.00 | 0.00 | 70 | 1005.0 |
| 20260505234551 | 82 | 172 | 5.0 | 11.0 | 0.00 | 0.00 | 0.00 | 70 | 1004.9 |
| 20260505234455 | 82 | 196 | 6.0 | 11.0 | 0.00 | 0.00 | 0.00 | 69 | 1004.9 |
| 20260505234358 | 82 | 194 | 5.0 | 12.0 | 0.00 | 0.00 | 0.00 | 69 | 1004.9 |
| 20260505234307 | 82 | 167 | 3.0 | 12.0 | 0.00 | 0.00 | 0.00 | 70 | 1004.9 |
| 20260505234151 | 82 | 184 | 5.0 | 12.0 | 0.00 | 0.00 | 0.00 | 70 | 1004.9 |
| 20260505234055 | 82 | 202 | 6.0 | 12.0 | 0.00 | 0.00 | 0.00 | 70 | 1004.9 |
| 20260505233958 | 82 | 189 | 6.0 | 12.0 | 0.00 | 0.00 | 0.00 | 70 | 1004.9 |
| 20260505233922 | 82 | 178 | 5.0 | 12.0 | 0.00 | 0.00 | 0.00 | 70 | 1005.0 |
| 20260505233805 | 81 | 198 | 5.0 | 12.0 | 0.00 | 0.00 | 0.00 | 70 | 1005.0 |
| 20260505233652 | 81 | 173 | 6.0 | 12.0 | 0.00 | 0.00 | 0.00 | 70 | 1005.0 |
| 20260505233554 | 81 | 178 | 6.0 | 12.0 | 0.00 | 0.00 | 0.00 | 70 | 1005.0 |
| 20260505233458 | 81 | 178 | 6.0 | 13.0 | 0.00 | 0.00 | 0.00 | 70 | 1005.0 |
| 20260505233402 | 81 | 174 | 5.0 | 11.0 | 0.00 | 0.00 | 0.00 | 70 | 1005.1 |
| 20260505233307 | 82 | 171 | 5.0 | 11.0 | 0.00 | 0.00 | 0.00 | 70 | 1005.1 |
| 20260505233150 | 82 | 180 | 6.0 | 11.0 | 0.00 | 0.00 | 0.00 | 69 | 1005.2 |
| 20260505233057 | 82 | 191 | 6.0 | 11.0 | 0.00 | 0.00 | 0.00 | 70 | 1005.2 |
| 20260505233021 | 82 | 199 | 6.0 | 10.0 | 0.00 | 0.00 | 0.00 | 70 | 1005.2 |
| 20260505232924 | 82 | 188 | 5.0 | 10.0 | 0.00 | 0.00 | 0.00 | 69 | 1005.1 |
| 20260505232807 | 82 | 172 | 5.0 | 11.0 | 0.00 | 0.00 | 0.00 | 70 | 1005.1 |
| 20260505232649 | 81 | 175 | 6.0 | 11.0 | 0.00 | 0.00 | 0.00 | 69 | 1005.0 |
| 20260505232553 | 81 | 170 | 6.0 | 11.0 | 0.00 | 0.00 | 0.00 | 70 | 1005.0 |
| 20260505232456 | 81 | 190 | 5.0 | 11.0 | 0.00 | 0.00 | 0.00 | 70 | 1005.1 |
| 20260505232400 | 81 | 167 | 5.0 | 11.0 | 0.00 | 0.00 | 0.00 | 70 | 1005.1 |
| 20260505232307 | 81 | 177 | 4.0 | 11.0 | 0.00 | 0.00 | 0.00 | 71 | 1005.2 |
| 20260505232212 | 81 | 196 | 5.0 | 11.0 | 0.00 | 0.00 | 0.00 | 70 | 1005.1 |
| 20260505232048 | 81 | 213 | 7.0 | 11.0 | 0.00 | 0.00 | 0.00 | 70 | 1005.1 |
| 20260505231952 | 82 | 206 | 7.0 | 11.0 | 0.00 | 0.00 | 0.00 | 70 | 1005.1 |
| 20260505231915 | 82 | 186 | 6.0 | 11.0 | 0.00 | 0.00 | 0.00 | 70 | 1005.1 |
| 20260505231758 | 82 | 170 | 4.0 | 13.0 | 0.00 | 0.00 | 0.00 | 70 | 1005.2 |
| 20260505231705 | 82 | 136 | 3.0 | 11.0 | 0.00 | 0.00 | 0.00 | 70 | 1005.1 |
| 20260505231549 | 81 | 225 | 5.0 | 11.0 | 0.00 | 0.00 | 0.00 | 70 | 1005.2 |
| 20260505231453 | 81 | 206 | 5.0 | 11.0 | 0.00 | 0.00 | 0.00 | 70 | 1005.2 |
| 20260505231358 | 82 | 200 | 5.0 | 11.0 | 0.00 | 0.00 | 0.00 | 69 | 1005.2 |
| 20260505231301 | 82 | 204 | 5.0 | 11.0 | 0.00 | 0.00 | 0.00 | 69 | 1005.1 |
| 20260505231205 | 82 | 200 | 5.0 | 11.0 | 0.00 | 0.00 | 0.00 | 70 | 1005.1 |
| 20260505231052 | 82 | 195 | 4.0 | 13.0 | 0.00 | 0.00 | 0.00 | 70 | 1005.1 |
| 20260505231016 | 82 | 186 | 6.0 | 12.0 | 0.00 | 0.00 | 0.00 | 69 | 1005.0 |
| 20260505230859 | 82 | 165 | 6.0 | 12.0 | 0.00 | 0.00 | 0.00 | 69 | 1005.0 |
| 20260505230802 | 82 | 201 | 5.0 | 11.0 | 0.00 | 0.00 | 0.00 | 69 | 1005.0 |
| 20260505230707 | 82 | 173 | 5.0 | 11.0 | 0.00 | 0.00 | 0.00 | 69 | 1005.2 |
| 20260505230550 | 82 | 198 | 3.0 | 11.0 | 0.00 | 0.00 | 0.00 | 70 | 1005.1 |
| 20260505230457 | 82 | 179 | 3.0 | 12.0 | 0.00 | 0.00 | 0.00 | 70 | 1005.1 |
| 20260505230401 | 82 | 204 | 4.0 | 12.0 | 0.00 | 0.00 | 0.00 | 70 | 1005.0 |
| 20260505230304 | 82 | 196 | 5.0 | 12.0 | 0.00 | 0.00 | 0.00 | 69 | 1005.1 |
| 20260505230148 | 82 | 194 | 4.0 | 12.0 | 0.00 | 0.00 | 0.00 | 69 | 1005.0 |
| 20260505230051 | 82 | 201 | 5.0 | 12.0 | 0.00 | 0.00 | 0.00 | 69 | 1005.0 |
| 20260505225955 | 82 | 184 | 6.0 | 12.0 | 0.00 | 0.00 | 0.00 | 69 | 1005.0 |
| 20260505225902 | 82 | 181 | 6.0 | 12.0 | 0.00 | 0.00 | 0.00 | 69 | 1005.0 |
| 20260505225806 | 82 | 217 | 7.0 | 13.0 | 0.00 | 0.00 | 0.00 | 69 | 1004.9 |
| 20260505225650 | 82 | 219 | 6.0 | 13.0 | 0.00 | 0.00 | 0.00 | 69 | 1004.9 |
| 20260505225613 | 82 | 205 | 5.0 | 13.0 | 0.00 | 0.00 | 0.00 | 69 | 1004.9 |
| 20260505225456 | 82 | 218 | 5.0 | 13.0 | 0.00 | 0.00 | 0.00 | 69 | 1005.0 |
| 20260505225419 | 82 | 211 | 6.0 | 15.0 | 0.00 | 0.00 | 0.00 | 69 | 1004.9 |
| 20260505225305 | 82 | 193 | 6.0 | 15.0 | 0.00 | 0.00 | 0.00 | 69 | 1004.9 |
| 20260505225210 | 82 | 198 | 7.0 | 15.0 | 0.00 | 0.00 | 0.00 | 69 | 1004.8 |
| 20260505225052 | 82 | 190 | 7.0 | 15.0 | 0.00 | 0.00 | 0.00 | 69 | 1004.8 |
| 20260505225016 | 82 | 208 | 6.0 | 15.0 | 0.00 | 0.00 | 0.00 | 68 | 1004.9 |
| 20260505224918 | 82 | 172 | 7.0 | 15.0 | 0.00 | 0.00 | 0.00 | 68 | 1004.9 |
| 20260505224801 | 82 | 191 | 8.0 | 15.0 | 0.00 | 0.00 | 0.00 | 68 | 1004.8 |
| 20260505224704 | 82 | 182 | 8.0 | 15.0 | 0.00 | 0.00 | 0.00 | 68 | 1004.8 |
| 20260505224608 | 82 | 182 | 6.0 | 15.0 | 0.00 | 0.00 | 0.00 | 68 | 1004.9 |
| 20260505224454 | 82 | 195 | 7.0 | 15.0 | 0.00 | 0.00 | 0.00 | 68 | 1004.9 |
| 20260505224358 | 82 | 190 | 8.0 | 15.0 | 0.00 | 0.00 | 0.00 | 68 | 1004.9 |
| 20260505224302 | 82 | 193 | 8.0 | 15.0 | 0.00 | 0.00 | 0.00 | 67 | 1004.9 |
| 20260505224206 | 82 | 186 | 6.0 | 13.0 | 0.00 | 0.00 | 0.00 | 68 | 1004.9 |
| 20260505224048 | 82 | 207 | 5.0 | 13.0 | 0.00 | 0.00 | 0.00 | 68 | 1004.9 |
| 20260505223951 | 82 | 196 | 5.0 | 13.0 | 0.00 | 0.00 | 0.00 | 68 | 1004.9 |
| 20260505223855 | 82 | 184 | 4.0 | 13.0 | 0.00 | 0.00 | 0.00 | 69 | 1004.8 |
| 20260505223802 | 82 | 200 | 5.0 | 13.0 | 0.00 | 0.00 | 0.00 | 69 | 1004.8 |
| 20260505223707 | 82 | 222 | 5.0 | 13.0 | 0.00 | 0.00 | 0.00 | 68 | 1004.8 |
| 20260505223549 | 82 | 194 | 6.0 | 16.0 | 0.00 | 0.00 | 0.00 | 68 | 1004.8 |
| 20260505223453 | 82 | 176 | 7.0 | 16.0 | 0.00 | 0.00 | 0.00 | 68 | 1004.8 |
| 20260505223416 | 82 | 176 | 7.0 | 16.0 | 0.00 | 0.00 | 0.00 | 68 | 1004.8 |
| 20260505223259 | 82 | 173 | 7.0 | 16.0 | 0.00 | 0.00 | 0.00 | 68 | 1004.8 |
| 20260505223206 | 82 | 162 | 6.0 | 16.0 | 0.00 | 0.00 | 0.00 | 68 | 1004.8 |
| 20260505223050 | 82 | 180 | 6.0 | 16.0 | 0.00 | 0.00 | 0.00 | 68 | 1004.8 |
| 20260505222953 | 82 | 182 | 6.0 | 16.0 | 0.00 | 0.00 | 0.00 | 68 | 1004.8 |
| 20260505222857 | 82 | 210 | 7.0 | 19.0 | 0.00 | 0.00 | 0.00 | 68 | 1004.8 |
| 20260505222800 | 82 | 200 | 8.0 | 19.0 | 0.00 | 0.00 | 0.00 | 68 | 1004.7 |
| 20260505222704 | 82 | 237 | 8.0 | 19.0 | 0.00 | 0.00 | 0.00 | 68 | 1004.8 |
| 20260505222551 | 82 | 159 | 7.0 | 19.0 | 0.00 | 0.00 | 0.00 | 68 | 1004.8 |
| 20260505222455 | 82 | 173 | 7.0 | 19.0 | 0.00 | 0.00 | 0.00 | 69 | 1004.8 |
| 20260505222358 | 82 | 163 | 7.0 | 19.0 | 0.00 | 0.00 | 0.00 | 69 | 1004.9 |
| 20260505222305 | 82 | 229 | 8.0 | 19.0 | 0.00 | 0.00 | 0.00 | 68 | 1004.8 |
| 20260505222207 | 82 | 211 | 9.0 | 19.0 | 0.00 | 0.00 | 0.00 | 67 | 1004.9 |
| 20260505222050 | 82 | 199 | 7.0 | 19.0 | 0.00 | 0.00 | 0.00 | 67 | 1005.0 |
| 20260505221957 | 83 | 188 | 5.0 | 14.0 | 0.00 | 0.00 | 0.00 | 68 | 1005.0 |
| 20260505221900 | 82 | 206 | 7.0 | 16.0 | 0.00 | 0.00 | 0.00 | 68 | 1004.9 |
| 20260505221804 | 82 | 161 | 8.0 | 16.0 | 0.00 | 0.00 | 0.00 | 67 | 1004.9 |
| 20260505221707 | 82 | 136 | 7.0 | 16.0 | 0.00 | 0.00 | 0.00 | 68 | 1004.9 |
| 20260505221551 | 82 | 176 | 7.0 | 16.0 | 0.00 | 0.00 | 0.00 | 68 | 1004.9 |
| 20260505221514 | 82 | 154 | 7.0 | 16.0 | 0.00 | 0.00 | 0.00 | 68 | 1004.9 |
| 20260505221356 | 82 | 153 | 7.0 | 16.0 | 0.00 | 0.00 | 0.00 | 68 | 1004.9 |
| 20260505221325 | 82 | 178 | 8.0 | 16.0 | 0.00 | 0.00 | 0.00 | 68 | 1004.9 |
| 20260505221148 | 82 | 181 | 8.0 | 16.0 | 0.00 | 0.00 | 0.00 | 69 | 1004.9 |
| 20260505221052 | 82 | 176 | 8.0 | 16.0 | 0.00 | 0.00 | 0.00 | 69 | 1004.9 |
| 20260505220955 | 82 | 205 | 6.0 | 15.0 | 0.00 | 0.00 | 0.00 | 68 | 1004.9 |
| 20260505220919 | 82 | 173 | 7.0 | 15.0 | 0.00 | 0.00 | 0.00 | 67 | 1004.9 |
| 20260505220804 | 82 | 188 | 9.0 | 15.0 | 0.00 | 0.00 | 0.00 | 67 | 1004.8 |
| 20260505220651 | 83 | 176 | 8.0 | 17.0 | 0.00 | 0.00 | 0.00 | 67 | 1004.9 |
| 20260505220614 | 83 | 161 | 6.0 | 16.0 | 0.00 | 0.00 | 0.00 | 67 | 1004.9 |
| 20260505220450 | 83 | 163 | 4.0 | 11.0 | 0.00 | 0.00 | 0.00 | 67 | 1004.9 |
| 20260505220354 | 83 | 177 | 4.0 | 11.0 | 0.00 | 0.00 | 0.00 | 67 | 1004.9 |
| 20260505220257 | 83 | 144 | 5.0 | 11.0 | 0.00 | 0.00 | 0.00 | 67 | 1005.0 |
| 20260505220201 | 83 | 194 | 5.0 | 11.0 | 0.00 | 0.00 | 0.00 | 67 | 1005.0 |
| 20260505220048 | 83 | 163 | 5.0 | 11.0 | 0.00 | 0.00 | 0.00 | 67 | 1005.0 |
| 20260505215952 | 83 | 134 | 6.0 | 13.0 | 0.00 | 0.00 | 0.00 | 67 | 1005.0 |
| 20260505215856 | 83 | 167 | 6.0 | 11.0 | 0.00 | 0.00 | 0.00 | 68 | 1004.9 |
| 20260505215800 | 83 | 189 | 7.0 | 14.0 | 0.00 | 0.00 | 0.00 | 68 | 1005.0 |
| 20260505215723 | 83 | 204 | 6.0 | 14.0 | 0.00 | 0.00 | 0.00 | 67 | 1005.0 |
| 20260505215605 | 83 | 178 | 6.0 | 16.0 | 0.00 | 0.00 | 0.00 | 67 | 1005.0 |
| 20260505215449 | 83 | 180 | 5.0 | 16.0 | 0.00 | 0.00 | 0.00 | 68 | 1005.1 |
| 20260505215357 | 82 | 190 | 3.0 | 19.0 | 0.00 | 0.00 | 0.00 | 68 | 1005.1 |
| 20260505215300 | 82 | 166 | 4.0 | 19.0 | 0.00 | 0.00 | 0.00 | 68 | 1005.1 |
| 20260505215203 | 82 | 196 | 5.0 | 19.0 | 0.00 | 0.00 | 0.00 | 68 | 1005.0 |
| 20260505215106 | 82 | 198 | 7.0 | 19.0 | 0.00 | 0.00 | 0.00 | 67 | 1005.0 |